GFSNGP_500_spd_000.txt.gz
Wind_Speed
15 19 23 27 31 35 33 31 28 21 24 22 23 24 30 31 37 42 44 49 52 57 63 68 72 77 80 82 81 84 82 84 84 86 85 81 80 81 80 76 70 62 56 49
20 24 26 28 33 37 34 30 27 29 24 29 30 29 36 38 43 46 50 54 59 64 70 73 76 80 83 85 85 86 85 86 86 89 92 90 87 81 75 71 61 51 45 46
24 27 30 31 34 39 36 32 32 30 30 34 34 38 43 43 44 48 55 61 65 69 74 78 81 83 85 86 83 84 86 88 88 81 74 72 72 74 72 59 46 42 44 47
29 32 33 35 36 40 35 32 30 33 36 38 40 42 46 49 52 56 61 66 69 73 77 81 83 85 84 82 84 86 87 85 82 77 72 67 69 68 55 43 41 42 46 48
35 37 36 35 37 38 40 31 34 32 37 38 39 44 48 53 58 63 65 68 71 75 78 82 85 87 85 85 86 88 88 81 77 69 59 61 69 50 39 41 41 43 45 48
39 42 42 41 44 44 39 35 38 36 38 40 43 47 51 56 59 61 64 68 75 80 85 86 84 84 85 86 88 87 82 75 69 64 50 56 56 37 39 37 41 42 43 47
43 44 43 44 45 43 45 43 41 39 43 44 48 53 57 60 61 66 71 76 80 83 85 83 84 85 87 88 85 80 74 69 61 45 44 46 35 33 32 37 40 40 42 45
44 45 46 48 48 48 48 47 47 46 47 50 55 58 60 62 67 71 75 78 81 83 83 83 84 88 87 83 76 70 68 61 50 38 35 30 27 27 32 38 39 40 43 45
46 46 47 51 51 50 51 51 51 51 53 56 59 61 62 67 71 75 77 80 81 82 84 85 87 88 83 74 69 64 58 46 36 28 23 26 26 27 34 38 40 41 46 43
50 46 47 49 51 54 55 54 55 56 58 59 60 62 67 70 73 77 79 80 81 83 84 84 83 79 70 67 65 56 45 34 27 26 29 28 26 29 35 40 40 42 46 41
49 48 50 51 55 58 56 54 55 59 62 62 64 68 71 74 75 77 79 81 83 84 84 83 78 70 66 64 54 47 35 29 27 30 33 29 28 30 35 40 40 42 45 40
50 54 49 55 56 57 53 54 57 60 62 64 67 70 72 74 76 78 80 81 82 82 82 78 70 67 64 54 46 38 31 27 29 32 32 29 28 32 36 39 39 42 42 37
51 52 54 55 57 58 56 58 60 62 65 68 70 72 73 75 77 79 79 80 81 81 78 72 68 63 55 45 38 31 29 28 30 32 30 28 29 32 34 38 37 41 38 33
49 53 58 58 59 59 57 60 63 68 71 71 71 73 74 76 77 78 79 80 81 78 72 68 62 55 50 39 34 29 28 29 29 31 30 29 30 32 35 35 36 42 36 30
54 58 59 59 57 59 61 64 69 71 71 71 72 73 74 75 76 77 78 80 79 72 68 63 55 50 41 36 33 31 28 31 30 30 31 30 30 31 34 32 36 41 36 28
59 58 58 56 59 63 65 68 71 71 72 71 70 71 73 75 76 77 78 77 73 66 62 56 51 43 33 33 31 31 29 28 29 28 29 29 29 31 31 31 36 39 34 28
55 56 57 60 63 65 69 71 72 71 69 68 69 71 73 74 75 76 74 69 64 61 56 52 45 34 30 30 29 29 28 28 27 27 28 28 28 30 28 32 35 37 36 29
56 58 62 64 67 69 69 69 68 67 66 69 71 73 73 74 75 71 66 62 58 53 50 45 39 31 28 27 26 25 27 28 27 27 26 27 28 28 28 33 36 38 38 32
62 63 65 67 69 68 67 65 65 66 69 71 72 72 72 72 69 64 60 56 54 48 44 39 33 26 24 24 25 27 28 28 27 25 25 26 28 27 30 33 36 38 38 35
65 65 67 67 66 64 63 64 67 69 70 70 71 72 71 67 62 58 55 51 50 44 39 34 30 25 25 26 27 27 26 24 22 23 25 27 27 28 30 34 36 37 37 35
66 66 65 62 60 61 64 66 68 68 68 69 70 69 67 62 57 55 51 46 45 40 35 33 30 27 27 27 26 27 23 21 22 25 28 28 28 28 31 33 35 37 36 35
63 60 59 59 61 63 64 66 67 68 68 68 68 66 62 59 55 51 46 45 41 37 32 30 28 26 25 25 24 23 21 22 26 28 30 29 28 29 31 32 34 36 35 35
56 57 60 62 63 63 64 66 67 68 68 66 64 62 60 57 51 46 40 41 39 35 31 28 26 25 24 24 25 26 26 27 29 30 31 30 29 30 30 32 32 35 35 36
56 58 60 62 64 64 65 65 66 65 64 62 59 57 54 49 43 42 41 40 37 32 30 28 27 26 26 27 28 30 31 29 29 31 31 30 30 31 30 31 31 33 36 37
58 60 62 63 63 62 62 63 64 63 63 58 54 52 49 47 44 41 40 36 33 29 29 28 28 28 29 31 32 33 33 32 31 32 31 30 32 31 29 29 30 31 34 38
59 60 60 60 61 62 63 63 63 58 55 50 47 46 45 43 40 37 34 32 29 28 28 28 28 29 31 32 32 33 32 31 30 31 31 31 32 31 29 29 30 31 33 35
57 58 58 59 60 61 62 58 54 52 48 45 42 40 40 37 33 31 30 27 27 28 30 32 33 34 35 36 35 33 32 31 32 31 31 31 31 30 29 29 30 32 33 35

GFSNGP_500_spd_003.txt.gz
Wind_Speed
9 12 16 19 21 23 25 29 31 24 26 30 33 33 32 33 38 41 43 46 48 53 58 63 65 69 73 76 81 84 85 87 86 87 89 87 84 79 55 63 67 70 71 48
13 15 19 21 25 27 28 29 31 29 32 34 29 29 33 38 41 42 45 49 53 58 62 65 70 73 77 81 84 85 87 87 88 89 86 79 73 50 57 71 61 58 62 48
17 20 23 27 29 31 32 33 36 35 37 34 32 35 38 39 39 43 46 53 57 61 65 69 73 78 83 85 87 87 87 87 89 89 83 72 67 51 59 66 54 60 48 46
22 25 28 31 33 34 36 36 38 39 38 38 39 42 42 42 44 49 54 59 62 65 70 74 79 82 85 85 85 87 87 89 89 85 73 67 59 48 51 50 51 43 42 44
28 30 32 36 38 36 39 39 38 40 41 42 43 44 45 47 51 56 60 62 66 69 73 76 78 82 84 86 87 88 89 89 81 72 66 59 50 39 41 42 32 34 40 40
33 35 38 42 44 43 43 40 41 39 40 41 41 43 45 49 53 57 60 62 66 71 75 79 82 84 85 87 87 88 89 83 72 66 57 47 36 34 32 26 28 35 37 38
37 39 40 42 46 44 43 46 46 43 45 46 46 47 49 54 57 59 62 67 72 76 79 82 84 85 87 88 88 89 84 72 66 55 45 34 26 23 25 23 30 35 38 39
41 43 45 47 48 47 46 49 48 47 48 50 51 50 52 55 58 62 67 71 75 78 81 82 84 85 87 88 89 82 74 65 54 45 34 27 28 29 23 26 31 37 40 41
44 46 48 52 51 51 52 53 50 51 53 55 54 54 56 59 63 68 72 73 77 79 79 81 84 86 87 88 82 74 66 57 46 38 30 27 29 29 25 28 32 37 39 41
50 50 52 57 55 53 54 53 52 53 55 57 56 57 59 64 69 72 73 76 77 77 79 82 85 85 87 85 74 67 57 48 40 32 27 30 31 28 26 28 33 38 38 41
50 50 53 54 53 56 55 53 55 58 58 57 57 61 64 68 71 72 73 73 75 77 80 82 83 84 84 79 68 56 50 40 33 28 27 30 30 27 26 28 33 37 36 41
49 50 53 51 54 54 53 56 58 58 57 57 60 63 67 70 71 72 71 72 74 77 80 81 82 81 79 71 59 49 40 33 29 26 27 28 28 27 28 30 33 35 35 41
52 53 50 53 55 52 56 58 58 56 56 60 63 66 69 71 71 71 72 74 77 78 80 81 81 78 71 61 51 40 31 30 28 27 28 29 28 27 27 30 32 31 34 38
49 48 51 52 52 54 58 57 55 57 61 64 67 70 71 71 71 71 72 75 77 77 79 80 77 69 62 53 44 33 27 27 29 27 27 28 27 27 27 28 30 28 32 35
48 49 53 53 55 59 60 57 58 62 65 68 71 73 72 71 69 71 74 76 76 78 78 74 67 61 53 46 37 30 27 27 29 27 26 28 26 25 26 28 27 29 33 35
49 51 51 53 59 61 59 61 64 67 70 72 73 72 68 68 71 74 75 76 76 76 72 65 60 54 46 40 33 28 26 26 24 25 26 27 25 23 25 26 27 30 34 36
53 51 52 56 58 59 62 65 68 70 72 72 69 66 67 70 73 73 74 74 73 70 65 59 54 47 40 34 28 26 25 24 25 26 26 25 22 22 25 26 28 31 34 35
48 52 56 58 59 60 63 67 70 71 69 67 65 67 70 72 73 74 74 71 68 64 58 53 48 42 37 30 26 25 27 28 27 25 23 21 21 24 26 27 29 32 34 35
53 56 58 60 60 63 66 68 69 65 63 64 66 69 71 73 75 73 70 67 64 60 51 46 42 38 34 29 27 28 29 27 25 21 19 21 24 25 26 27 29 32 34 35
56 61 63 63 65 66 68 66 62 61 64 66 68 70 73 73 71 69 67 62 59 53 45 40 38 36 31 28 27 27 25 23 20 20 21 24 26 26 25 27 29 31 32 33
63 65 64 64 65 65 61 59 61 63 65 69 73 73 71 68 68 66 61 55 51 45 41 39 37 33 28 25 24 24 22 22 23 24 26 27 26 26 25 26 29 29 30 31
60 61 61 60 58 57 58 61 64 67 70 71 70 69 68 66 63 57 54 52 46 41 38 38 34 31 27 25 23 23 24 26 27 28 28 27 27 26 25 27 28 27 27 28
57 56 55 56 57 57 61 65 68 69 67 66 66 66 64 58 54 51 48 47 44 40 37 34 29 28 26 26 27 28 29 30 31 31 31 29 28 26 25 26 26 25 25 26
51 52 55 58 61 64 64 64 63 63 64 65 64 60 54 52 48 47 46 44 40 35 31 29 26 25 25 25 27 29 31 32 32 32 31 29 27 26 25 26 26 25 24 25
55 56 58 60 60 61 61 59 59 61 63 61 56 51 51 51 48 43 44 41 36 32 28 25 25 25 26 27 29 32 34 35 35 34 32 29 27 26 26 26 26 25 25 24
58 58 58 57 56 57 58 60 60 58 56 53 49 49 48 47 43 40 38 37 35 31 27 26 28 30 31 33 35 36 37 37 36 36 34 31 29 28 26 25 25 25 25 25
53 53 54 54 54 56 58 59 56 55 55 54 50 48 47 46 41 38 38 38 36 33 32 33 34 36 37 38 39 40 40 39 37 35 34 31 30 28 26 25 25 25 25 25

GFSNGP_500_spd_006.txt.gz
Wind_Speed
8 10 12 13 15 19 20 23 24 25 27 25 22 23 26 31 35 38 40 42 45 48 51 55 59 63 66 70 75 80 83 85 88 89 89 91 93 91 80 72 66 55 49 58
13 13 15 17 18 21 24 27 29 31 32 32 32 33 34 36 38 40 41 43 46 51 56 60 62 64 69 74 78 82 85 87 90 90 91 94 92 84 73 65 58 46 51 51
18 19 21 22 23 25 29 29 31 34 36 38 38 36 36 37 38 40 42 46 50 55 60 62 64 68 73 76 80 84 86 87 89 89 93 93 83 71 60 54 41 35 35 33
22 24 25 27 26 30 32 32 35 37 38 40 40 39 41 42 42 44 47 50 53 58 60 63 67 72 75 78 81 83 84 87 89 93 92 83 69 58 50 41 32 28 27 31
26 27 29 31 31 34 35 36 39 40 44 44 44 44 45 46 47 48 50 52 56 58 61 66 70 73 75 79 81 82 86 89 91 90 83 69 57 46 36 27 27 29 28 32
30 32 34 34 35 36 38 39 41 43 45 44 44 46 47 49 50 52 52 55 58 61 65 68 71 74 78 80 81 85 87 89 89 81 71 58 47 37 29 30 31 31 32 35
35 37 37 39 40 41 42 43 48 49 48 48 48 48 48 51 52 51 53 57 60 65 67 71 75 79 79 80 84 87 87 89 83 73 59 49 39 32 30 32 34 32 33 37
40 40 41 41 43 44 45 45 49 52 49 50 52 51 53 53 50 53 56 60 64 67 72 76 79 79 78 82 85 84 86 84 74 61 51 42 33 28 30 34 33 32 33 37
41 40 41 44 45 46 46 48 55 54 53 55 53 54 56 54 54 57 61 64 68 72 76 77 76 77 81 84 83 83 81 76 66 53 44 35 29 29 32 34 31 31 33 37
43 41 42 45 46 50 52 57 60 56 55 56 55 57 57 57 58 62 66 69 73 75 75 73 74 78 81 81 83 81 74 69 58 46 37 31 28 28 31 31 30 32 33 36
47 45 47 46 47 51 56 60 57 55 56 55 56 57 58 59 61 65 70 74 75 74 72 72 77 79 79 81 80 74 68 61 51 38 32 29 29 29 31 32 31 31 32 35
41 42 43 43 47 52 55 56 55 55 54 57 59 59 60 63 68 71 73 74 73 70 71 76 78 78 82 79 75 67 60 52 43 32 29 29 29 30 31 33 31 30 31 32
41 42 43 47 51 54 55 55 54 54 55 59 59 61 64 67 69 72 74 73 70 71 75 77 78 81 79 75 67 60 52 43 35 30 27 29 28 28 30 32 29 29 31 30
42 44 48 50 53 54 53 53 53 54 56 59 61 63 66 67 71 74 73 70 70 73 76 80 80 77 74 68 59 53 42 35 30 27 27 26 26 27 28 27 27 29 30 31
45 47 50 53 54 54 54 55 56 57 60 62 63 65 68 71 74 73 69 69 72 76 79 79 75 72 67 60 52 44 35 29 26 25 25 27 27 27 28 26 27 28 30 32
46 48 49 51 52 53 52 53 57 60 62 63 66 70 72 74 72 68 70 74 76 78 77 74 72 65 59 52 45 38 31 26 25 27 28 28 26 25 24 25 28 29 31 33
46 49 50 50 47 48 51 56 60 62 65 68 71 72 72 70 68 69 73 77 77 76 73 71 64 57 52 46 40 35 31 28 28 29 27 25 21 22 24 26 28 28 29 31
47 49 50 51 53 55 56 59 63 66 68 70 70 69 66 66 69 74 77 75 73 72 68 62 56 51 46 40 37 33 30 28 28 27 24 19 20 23 26 27 26 26 28 30
49 51 52 52 54 56 60 63 64 66 68 68 66 65 66 72 76 76 73 71 69 64 58 53 50 46 40 37 35 31 29 27 25 23 21 21 23 26 27 28 27 26 27 28
53 55 55 56 58 58 59 61 64 66 64 63 64 68 74 75 74 71 68 66 61 55 52 48 46 41 38 36 33 30 27 24 22 22 23 23 26 28 28 27 26 25 26 26
57 58 58 57 56 57 60 64 63 61 62 66 72 74 72 70 68 67 62 55 53 51 47 45 43 38 34 32 30 28 27 26 25 26 27 28 29 30 29 28 26 24 25 24
55 54 53 54 59 61 59 58 60 65 69 70 69 67 65 64 62 57 55 53 50 47 44 42 39 35 30 27 26 25 26 26 28 29 30 31 31 30 29 28 26 24 23 23
49 52 57 55 53 55 59 64 65 65 65 65 63 63 62 60 56 55 51 49 48 43 40 39 37 32 27 24 24 24 25 26 28 30 31 32 32 31 29 29 28 25 24 24
52 51 53 56 57 57 59 60 61 61 61 61 60 60 60 56 52 54 50 46 44 41 37 37 36 31 26 24 26 28 29 30 31 33 33 33 33 32 31 30 28 27 24 24
54 51 53 54 55 57 58 57 57 58 57 58 60 60 58 53 54 52 45 44 43 39 37 37 37 34 32 32 33 34 35 36 37 38 38 37 36 34 32 31 29 28 26 25
50 53 56 57 57 57 57 57 55 54 55 56 57 55 53 53 56 51 44 43 42 39 38 38 39 38 36 36 37 38 40 40 41 41 41 40 38 35 33 31 30 28 26 26
55 56 55 54 56 56 54 54 56 55 57 55 51 49 51 53 54 48 43 42 42 39 38 38 38 37 37 37 38 39 39 40 40 40 39 37 35 33 33 33 31 29 28 26

GFSNGP_500_spd_009.txt.gz
Wind_Speed
12 14 15 16 16 17 16 18 19 20 22 25 26 29 32 34 35 36 37 39 42 44 47 49 53 57 60 63 64 69 74 77 81 85 88 89 91 94 96 98 91 73 56 50
18 18 18 19 21 22 21 23 24 24 25 27 29 34 36 38 40 41 42 44 46 48 50 53 55 58 61 63 68 72 75 80 85 87 88 90 94 95 97 89 72 54 44 39
22 23 24 23 25 27 26 26 29 29 29 30 34 38 40 41 42 43 45 47 49 51 53 54 56 59 62 67 71 74 79 84 85 85 89 94 94 94 86 70 53 42 36 32
27 28 31 26 28 30 31 30 32 34 34 35 39 41 43 45 47 48 49 50 52 53 55 55 56 61 65 69 72 78 82 83 83 88 92 92 92 86 72 56 44 37 35 35
33 32 34 30 29 34 36 34 35 38 38 38 42 45 46 50 49 50 50 52 56 56 53 55 59 64 68 71 76 81 81 81 87 92 92 90 85 75 59 48 38 34 35 37
36 38 39 34 35 38 40 38 40 41 41 41 43 47 47 50 51 52 53 56 57 54 55 59 63 68 72 76 78 79 80 86 89 92 89 86 76 62 50 42 34 33 36 37
41 43 43 39 40 41 42 43 42 43 44 43 45 50 53 53 53 53 55 58 56 56 59 63 68 72 75 77 78 79 84 88 91 89 85 76 66 54 43 35 32 34 36 36
42 44 47 42 45 45 44 45 45 46 45 45 50 52 54 54 55 55 58 58 58 60 64 69 71 74 77 78 78 82 86 89 87 83 76 68 58 45 37 32 31 32 35 35
42 42 43 44 47 45 46 48 47 47 46 49 53 55 56 55 56 57 60 60 62 65 69 71 75 78 77 77 80 84 89 86 82 77 67 60 50 38 34 31 31 33 35 37
42 41 42 45 46 45 47 47 47 47 51 53 55 57 57 57 57 59 61 62 65 67 70 74 77 77 77 79 84 88 85 79 75 67 60 52 41 34 32 32 32 33 35 36
43 41 43 43 42 43 45 46 48 51 52 55 56 57 58 58 59 61 63 65 67 70 73 76 75 75 78 83 87 84 78 74 66 60 52 43 35 32 31 31 31 31 33 33
41 40 42 41 42 45 47 48 50 53 54 56 57 58 59 60 61 64 66 68 71 74 77 75 73 76 83 87 84 79 74 66 58 52 43 36 31 30 29 28 29 30 31 31
39 39 39 42 44 46 48 50 52 53 55 58 58 57 58 60 64 67 69 71 73 77 74 73 75 82 86 83 78 73 65 58 50 43 37 32 27 26 27 31 30 29 30 31
38 42 44 44 48 50 50 50 52 53 55 56 54 55 61 64 68 69 70 72 75 72 71 76 83 84 81 77 71 64 57 50 43 37 33 29 29 29 29 28 28 29 30 31
44 47 48 50 51 51 50 49 50 53 54 51 54 59 63 66 67 69 71 74 70 71 76 83 83 80 76 69 61 56 51 44 39 34 32 31 31 31 28 25 25 27 31 32
51 50 47 47 48 49 50 52 53 54 52 53 62 63 64 66 68 71 73 68 70 78 83 81 78 75 65 60 57 51 46 39 36 32 31 31 30 29 24 23 26 29 31 29
47 46 47 47 47 48 51 51 51 50 55 61 62 63 65 68 70 70 66 72 78 79 77 75 69 62 58 56 53 47 40 37 33 30 29 28 26 24 23 25 29 29 30 29
45 47 47 47 48 50 52 53 57 58 58 61 63 64 68 69 65 65 74 76 75 74 73 65 59 58 56 54 50 43 38 34 30 27 26 25 24 23 25 28 30 31 29 29
48 49 48 51 52 53 53 53 56 60 61 62 64 66 65 61 68 73 73 73 72 69 64 59 59 56 53 50 45 39 35 30 28 26 26 26 26 27 28 29 30 30 31 29
57 56 53 52 53 55 51 52 58 61 62 64 63 60 65 71 71 70 70 69 67 64 59 58 56 52 48 43 40 35 31 28 27 26 27 28 29 30 30 30 30 31 31 29
54 53 53 55 54 52 53 60 59 59 60 61 63 68 68 68 69 68 67 63 63 61 57 57 51 47 42 38 36 33 29 27 24 24 24 26 28 29 30 30 30 30 30 30
55 56 53 51 54 60 61 59 61 60 63 67 66 66 67 66 65 63 62 63 60 57 57 51 46 43 38 35 34 31 28 26 26 27 27 29 30 32 33 33 33 32 30 31
52 52 52 54 56 59 59 59 62 64 64 65 65 65 64 64 61 60 61 60 57 55 56 46 42 40 36 34 33 32 32 32 32 33 34 35 36 37 37 36 36 34 32 31
53 56 59 61 60 60 63 59 59 63 64 64 64 65 62 60 60 62 60 57 55 55 54 45 40 38 36 35 34 34 34 34 36 38 38 39 40 40 40 39 38 36 32 31
55 54 54 53 53 54 57 60 62 64 63 62 60 59 60 61 60 57 55 53 54 54 53 44 39 38 36 34 34 34 35 36 37 38 39 39 40 40 39 39 38 36 32 30
48 51 55 57 59 61 62 62 60 60 60 57 57 60 58 59 58 54 52 51 52 52 51 44 39 38 35 32 32 34 36 37 38 39 40 39 37 36 35 34 33 33 33 34
50 52 53 56 58 59 59 61 60 57 58 61 58 57 60 58 55 53 51 50 50 50 48 43 40 38 34 32 33 35 36 37 38 38 38 37 35 34 32 32 32 32 33 34

GFSNGP_500_spd_012.txt.gz
Wind_Speed
16 16 16 17 17 19 21 21 23 23 23 26 25 26 28 30 34 37 39 42 44 46 48 50 51 54 59 59 59 59 62 66 71 74 79 81 83 87 90 95 96 92 85 70
20 19 20 21 21 23 25 27 28 29 28 30 31 32 33 35 38 40 42 45 47 50 52 51 54 57 58 58 58 60 64 69 74 78 80 82 86 88 95 97 92 85 71 56
25 25 27 27 24 28 30 31 33 33 34 35 34 35 36 38 40 42 44 47 50 54 55 55 56 58 58 57 60 63 69 73 76 79 81 85 89 95 97 90 83 72 58 46
30 31 35 28 29 32 36 37 36 36 39 40 40 39 40 42 43 44 48 50 53 55 55 54 57 58 57 60 64 69 73 75 79 81 84 87 93 94 90 83 72 61 47 38
34 35 37 36 33 37 40 40 38 42 44 45 44 44 42 46 45 48 50 52 53 54 53 55 58 58 59 64 68 72 75 80 82 83 85 92 92 88 83 72 62 50 39 34
37 40 42 40 38 41 44 46 42 46 46 47 47 48 47 48 49 52 54 53 53 54 54 57 59 60 63 67 70 74 79 80 81 84 91 92 87 83 72 63 53 41 35 33
37 42 44 43 44 44 47 47 50 50 49 50 49 51 49 49 51 55 55 55 55 55 57 59 61 63 66 69 74 78 79 80 83 91 93 87 81 72 63 54 44 36 34 34
39 42 45 43 45 46 48 49 50 50 50 50 51 51 50 51 54 57 58 56 56 58 59 61 64 66 69 73 77 79 78 81 90 92 88 80 71 62 53 46 37 34 34 34
41 41 43 46 47 48 48 48 48 49 50 50 50 51 52 56 57 58 58 59 59 59 61 65 68 70 72 76 79 77 80 89 90 88 80 70 62 53 46 39 34 33 33 32
41 39 42 46 48 46 47 47 47 47 48 49 50 53 56 58 59 59 60 60 59 60 65 67 71 73 75 78 75 80 87 89 88 81 69 62 54 46 40 36 33 32 30 29
42 39 43 43 42 44 45 45 45 47 48 50 53 55 56 57 58 58 59 59 60 64 66 70 73 75 78 73 79 85 86 85 79 68 62 56 46 39 36 32 29 29 30 30
42 40 42 40 40 40 41 42 46 49 51 54 56 55 55 56 56 57 59 59 62 66 68 72 74 77 73 79 83 84 82 76 67 62 59 50 40 35 32 32 32 30 30 28
40 39 39 39 39 42 45 48 51 54 55 56 56 55 56 58 59 62 63 63 65 69 72 72 75 71 78 81 83 82 74 67 62 60 54 44 37 33 31 32 32 29 27 26
39 42 42 44 47 49 51 53 53 53 54 55 55 58 59 61 63 64 66 66 68 75 75 74 71 77 80 81 80 73 67 63 59 57 48 40 35 32 31 30 29 26 25 27
43 45 47 49 52 54 53 49 49 51 52 52 54 54 58 63 63 66 66 70 77 76 74 71 76 78 80 79 74 65 65 59 56 51 42 37 33 30 29 27 24 22 25 28
47 49 50 50 49 48 47 49 52 53 52 53 52 57 60 61 63 66 69 73 74 73 72 76 77 78 77 73 65 62 60 55 52 45 38 34 30 26 25 24 23 24 28 30
47 48 48 49 49 49 51 53 54 55 56 56 55 56 61 66 68 64 66 71 68 72 75 76 77 76 70 66 60 60 55 51 47 40 34 31 28 25 24 25 26 27 28 29
47 49 51 52 52 55 57 57 57 58 57 55 56 57 62 69 67 73 74 69 72 74 75 75 73 68 66 60 60 56 50 46 41 35 31 29 28 25 25 26 28 29 30 29
49 51 53 56 57 58 58 58 57 55 55 57 61 61 62 62 67 69 69 71 72 73 71 70 65 65 62 59 59 51 44 41 37 33 30 28 27 25 27 28 29 29 28 28
59 61 61 61 60 56 55 54 50 53 58 59 55 53 63 63 67 70 70 69 71 70 66 64 65 63 60 57 57 47 41 37 34 31 29 28 26 26 26 27 28 29 31 31
63 60 57 55 55 51 50 51 53 57 58 58 63 67 74 72 67 68 68 66 65 64 63 65 64 61 57 56 54 45 39 35 33 31 31 31 32 32 33 33 33 32 33 34
55 54 54 51 49 50 53 56 59 63 66 68 68 66 66 64 66 66 65 64 61 62 63 63 60 57 55 54 51 44 39 36 34 33 33 34 35 36 37 37 37 37 36 35
52 49 49 51 53 55 55 56 58 60 62 63 61 63 65 65 66 66 63 61 62 61 60 59 56 55 54 52 48 42 39 37 35 34 33 34 35 36 37 38 38 38 38 37
49 51 52 54 58 61 58 54 54 57 58 61 64 66 67 66 64 62 62 62 59 61 60 55 53 52 50 49 46 41 38 36 34 33 33 34 35 37 37 37 36 36 35 35
53 55 56 52 50 49 49 51 55 60 63 65 66 66 66 63 61 59 59 58 59 57 55 52 50 49 48 47 44 41 38 35 32 32 33 34 35 36 36 36 35 35 34 34
49 46 46 47 48 51 55 58 62 65 67 65 64 64 63 63 64 62 59 59 58 56 54 51 50 48 47 45 43 40 39 35 33 34 34 36 37 38 38 38 37 36 35 34
44 45 48 50 55 59 63 67 69 70 71 71 68 66 63 62 61 60 59 58 57 55 54 52 50 48 47 45 43 41 40 38 36 36 37 37 39 40 40 40 41 40 39 38

GFSNGP_500_spd_015.txt.gz
Wind_Speed
19 18 18 18 19 19 19 21 23 23 24 31 30 31 31 33 35 37 39 41 42 42 44 47 50 52 53 53 55 57 60 60 60 63 67 71 75 78 80 84 90 96 98 90
20 20 21 22 21 21 24 26 27 31 29 35 37 38 36 38 40 41 44 45 46 46 48 51 54 53 55 56 57 59 60 60 63 66 70 74 76 79 83 89 94 95 89 75
23 24 26 27 20 26 29 31 34 35 36 39 40 41 41 43 44 45 47 48 50 50 52 55 55 56 57 58 59 60 60 63 66 69 73 76 79 81 88 92 94 87 74 65
26 28 32 27 28 31 35 37 39 40 41 43 45 45 44 46 47 48 49 51 52 53 55 57 57 58 59 59 60 60 62 65 69 72 75 77 80 87 91 91 84 73 65 56
28 30 32 33 33 35 39 41 43 44 47 49 50 50 49 51 50 51 52 53 54 54 55 57 59 58 59 59 60 62 64 69 72 76 76 79 84 89 90 84 73 66 57 47
27 31 32 33 36 38 42 44 44 47 49 51 51 52 51 51 52 53 54 54 54 55 56 58 58 59 58 59 61 64 68 73 75 78 78 83 89 89 84 74 67 59 49 40
28 32 35 35 37 39 41 45 46 48 49 50 50 50 50 52 52 53 52 53 54 54 57 59 59 59 58 61 66 66 73 74 78 77 82 87 89 85 75 68 62 50 42 36
32 35 38 39 40 43 45 47 48 49 48 48 49 49 50 50 50 52 53 54 56 56 58 60 60 59 60 64 67 70 74 77 76 81 86 89 84 76 68 63 53 42 37 33
36 36 39 42 44 46 46 47 47 47 47 47 47 47 48 48 51 53 56 58 59 60 59 62 62 62 65 66 68 73 77 76 81 85 88 86 75 70 63 55 43 36 33 30
39 36 40 44 44 44 44 44 44 45 46 45 45 46 50 52 54 58 58 59 60 61 64 62 63 65 69 69 71 77 77 82 86 86 86 76 70 64 57 46 38 33 32 31
38 38 41 40 39 40 41 42 42 43 43 43 47 51 54 56 57 57 57 59 58 65 64 64 66 68 70 70 77 81 81 85 86 85 78 68 65 58 49 39 35 32 32 30
41 38 39 37 37 39 39 39 41 43 46 50 52 54 52 52 54 54 55 59 66 64 66 68 69 66 64 73 76 79 81 84 84 79 69 64 59 52 42 36 33 31 29 26
38 39 40 40 42 42 44 45 47 49 52 54 54 51 51 55 55 50 58 65 67 66 69 73 64 61 71 76 81 82 85 83 78 70 63 60 53 45 37 33 30 29 25 20
40 42 42 43 44 46 47 49 51 52 51 50 50 51 55 57 57 57 59 67 74 71 67 65 62 69 77 81 84 82 81 75 69 62 59 55 48 41 34 30 27 25 22 20
40 43 44 46 48 49 48 48 49 49 51 52 54 57 58 56 58 60 61 66 69 69 71 70 66 74 77 79 78 78 71 66 62 58 55 50 44 38 32 28 25 22 22 22
41 42 43 43 45 47 48 51 53 55 56 58 59 59 58 61 61 58 59 67 73 77 75 67 72 80 77 75 73 68 65 61 57 55 51 45 40 35 30 26 25 23 24 25
39 42 45 47 49 51 52 53 54 56 59 58 59 61 61 56 56 60 66 72 75 74 71 73 76 74 73 70 67 64 61 58 54 52 47 41 37 32 28 26 25 25 26 27
43 46 48 49 51 54 57 60 62 61 59 60 58 56 52 54 62 66 67 66 70 71 73 76 72 70 69 64 62 61 58 55 51 48 43 38 33 30 26 25 24 23 25 25
48 50 53 56 59 60 61 59 58 58 59 59 54 51 54 54 55 58 61 66 69 72 70 68 69 66 61 60 60 59 58 54 50 46 39 36 32 30 27 26 27 27 28 29
56 59 62 62 59 57 56 57 58 57 53 51 50 52 56 60 63 66 68 68 68 69 67 68 63 59 60 59 59 60 55 51 48 45 38 35 33 31 31 31 31 31 32 33
64 64 64 62 59 58 58 57 54 52 53 56 59 63 67 68 65 62 62 64 67 68 67 64 60 60 58 56 57 55 51 49 47 44 38 36 34 33 32 32 32 31 32 33
60 60 59 56 56 56 55 55 55 55 56 58 59 56 54 53 58 63 68 70 70 68 65 62 61 60 57 55 54 51 49 47 46 43 38 36 35 34 33 32 31 32 33 34
53 53 54 52 53 54 56 58 61 60 58 55 53 55 57 60 66 70 71 70 68 66 65 63 61 59 56 53 51 49 47 45 43 41 37 36 34 33 32 32 32 32 32 32
54 57 59 60 58 54 53 52 50 48 50 53 57 62 66 68 70 74 72 68 65 63 61 60 59 57 54 51 49 48 46 44 42 40 37 35 34 34 33 32 33 34 34 33
54 55 55 55 51 48 49 49 50 51 54 58 63 68 71 76 78 74 70 69 69 66 64 62 59 56 54 51 49 48 46 44 41 40 38 36 34 35 35 35 36 37 37 36
54 52 52 51 50 51 52 53 58 61 63 65 68 74 78 79 76 74 71 67 63 61 60 58 56 54 53 51 49 48 47 45 42 41 39 38 37 36 37 38 39 39 39 39
49 49 49 51 53 55 58 61 63 65 68 72 75 79 79 78 74 69 67 66 65 64 62 60 58 56 55 53 50 49 47 45 43 42 40 40 40 40 41 41 40 40 41 41

GFSNGP_500_spd_021.txt.gz
Wind_Speed
18 17 17 18 18 20 20 18 23 17 26 24 32 35 35 36 37 40 43 45 47 49 51 52 54 55 56 56 58 58 58 57 57 58 59 62 64 64 66 69 73 75 78 76
18 17 17 19 19 19 20 21 24 25 29 29 35 38 40 43 44 46 48 50 51 52 53 54 55 55 55 56 57 55 56 56 58 58 60 64 65 66 68 72 75 79 78 82
17 16 18 17 17 20 23 24 28 31 31 36 40 42 44 48 50 51 52 53 53 53 53 53 53 54 55 54 53 54 56 58 59 61 62 66 68 69 71 75 76 78 79 84
16 19 21 17 19 23 26 27 31 36 37 42 46 45 49 50 52 52 52 52 51 51 51 52 52 52 51 52 54 57 58 59 57 57 64 70 74 75 76 78 76 77 82 87
19 20 21 20 22 23 27 28 35 36 39 41 45 46 47 52 50 51 52 51 50 50 50 49 48 50 53 56 58 58 56 59 60 63 70 75 76 78 80 75 74 79 86 87
17 18 19 20 21 23 26 30 34 35 38 41 45 47 48 50 52 51 49 49 48 47 46 46 50 53 56 55 56 61 59 65 69 70 74 83 80 79 78 80 78 82 78 82
16 18 20 23 25 27 31 36 38 40 43 45 45 46 45 47 47 46 45 45 43 44 47 51 54 55 53 56 59 61 68 72 76 81 83 85 81 81 77 79 80 81 78 68
21 23 27 28 32 33 36 39 41 43 45 45 45 46 46 44 43 43 42 43 45 48 51 53 53 53 57 60 63 65 63 78 82 87 80 80 78 75 79 80 83 77 69 64
26 29 33 35 36 39 41 42 43 43 43 45 45 44 45 43 42 44 46 48 50 52 51 52 54 56 54 65 71 66 72 77 82 81 78 67 71 72 75 73 71 70 65 59
31 33 36 39 41 43 43 43 42 43 44 44 43 43 43 45 44 46 48 50 50 52 54 57 58 60 63 68 69 81 80 79 82 72 64 72 72 74 73 68 67 62 57 51
36 36 40 41 45 43 42 43 42 43 45 44 43 44 45 47 47 48 49 51 53 56 58 60 63 66 64 68 69 69 79 81 78 81 74 75 74 68 69 61 57 55 51 46
39 41 40 42 42 40 42 43 44 44 45 45 45 46 47 46 48 52 54 56 57 59 64 65 64 62 66 72 75 79 80 82 79 79 78 71 69 62 61 53 52 50 49 43
41 41 41 41 42 44 44 44 44 45 46 46 46 45 48 51 53 54 57 60 62 63 61 55 60 62 62 67 72 78 79 84 79 73 68 66 61 55 51 50 49 47 45 38
37 39 42 42 45 45 45 45 46 46 46 45 46 49 52 54 57 60 62 62 62 61 60 62 61 61 64 67 71 76 78 70 66 65 64 60 56 53 51 49 49 45 42 35
39 40 43 45 45 45 46 46 45 45 46 48 51 54 58 61 64 66 64 61 59 57 57 59 61 63 66 68 70 65 61 60 66 69 67 61 55 51 50 50 48 44 40 34
43 43 43 44 45 45 45 46 46 48 50 54 57 61 64 66 65 60 57 57 59 60 59 60 63 68 70 63 61 62 62 62 68 70 63 58 55 52 49 49 46 43 38 33
44 46 45 45 45 45 44 46 49 53 56 60 63 63 61 58 56 55 57 59 61 60 60 62 65 65 60 58 62 62 63 68 72 69 61 57 52 50 48 46 43 41 38 33
43 43 43 42 43 45 48 52 55 58 61 62 61 57 54 54 55 56 58 59 59 59 58 58 57 59 60 61 65 67 69 73 73 66 60 57 54 50 47 45 42 40 37 34
42 42 43 45 48 51 54 57 59 60 58 54 51 52 54 56 58 59 60 59 56 55 57 57 59 61 67 69 68 71 75 74 68 62 59 56 53 50 46 43 40 38 36 33
43 45 47 50 52 54 57 58 55 50 48 50 52 56 58 60 60 59 56 56 57 59 60 61 66 69 67 69 74 77 77 70 63 57 52 49 47 45 43 41 39 37 36 33
47 49 52 53 57 57 53 48 47 49 52 55 57 59 60 60 58 56 55 56 59 62 65 66 66 69 73 77 81 79 73 65 62 58 55 51 48 44 42 40 38 37 35 33
52 54 56 56 53 49 47 49 51 55 57 59 61 62 61 57 55 56 58 60 61 64 66 69 72 77 81 82 77 70 67 65 61 58 55 52 49 46 42 40 38 37 35 33
56 56 54 50 47 49 51 54 57 59 61 61 61 60 58 57 57 58 59 62 64 66 71 76 81 83 80 73 68 64 59 57 56 54 52 49 47 45 43 41 39 38 36 35
53 49 48 49 52 54 56 59 61 62 62 60 59 59 57 57 58 62 64 65 70 74 80 82 79 74 69 64 60 56 53 51 50 49 48 46 44 44 43 42 40 39 38 37
48 50 52 55 57 59 61 61 61 60 57 58 58 57 58 61 62 64 67 72 77 81 80 76 69 63 59 55 53 50 48 46 45 45 45 44 41 41 42 41 41 40 39 39
53 55 58 59 60 60 59 58 56 55 56 57 58 59 61 64 66 70 74 78 80 78 71 65 60 57 54 52 50 48 47 46 45 44 43 43 43 41 41 40 40 40 40 40
58 60 60 59 57 54 53 52 54 57 57 58 60 62 64 67 71 75 78 77 72 66 61 59 57 54 53 52 51 51 50 49 48 46 46 46 44 43 42 40 39 39 39 39

GFSNGP_500_spd_024.txt.gz
Wind_Speed
21 18 22 23 19 18 19 17 20 15 19 18 19 30 37 41 38 37 38 46 47 50 55 57 55 55 53 53 53 53 54 54 53 56 58 59 60 60 61 64 68 74 81 85
18 20 20 20 18 18 19 18 20 21 24 23 31 36 37 40 41 46 46 46 49 49 53 54 55 56 54 52 52 53 51 52 57 58 61 59 59 64 67 72 73 77 80 86
20 19 19 17 15 18 18 20 23 26 26 30 33 40 42 37 44 48 47 49 50 51 52 53 55 55 52 51 50 51 52 56 58 57 59 61 67 71 77 77 75 80 86 84
21 19 19 17 15 17 19 22 27 30 33 34 36 40 41 45 47 47 51 52 53 53 53 52 51 51 49 48 50 55 56 57 56 57 61 64 69 77 82 85 85 83 77 74
22 21 18 17 18 17 22 24 29 30 31 33 37 39 44 46 48 50 52 53 52 49 48 47 47 46 47 52 56 57 56 56 61 61 65 71 79 82 92 92 84 75 71 72
18 19 20 19 18 19 21 25 26 28 32 35 39 42 45 47 49 49 48 47 47 44 44 44 46 49 52 55 55 55 57 61 62 65 77 80 84 86 91 81 68 70 71 74
14 15 14 17 16 21 24 27 31 33 35 39 42 45 46 46 46 45 49 48 45 46 47 48 50 51 51 54 56 58 58 63 66 68 71 78 87 79 76 75 71 75 81 68
15 16 19 21 24 25 28 31 33 36 40 42 43 42 44 45 49 41 45 49 47 47 48 48 49 52 54 57 57 61 64 66 65 73 76 84 85 81 76 73 75 79 69 57
18 21 24 27 27 30 32 34 38 40 41 43 44 44 46 49 50 44 48 46 48 48 48 52 53 55 58 61 64 68 68 70 76 78 81 83 85 85 80 80 72 61 61 54
24 26 31 33 32 36 36 40 42 43 43 44 42 46 48 47 46 46 47 46 46 49 52 55 57 60 64 66 68 67 65 60 72 71 72 78 82 81 71 65 64 60 55 51
30 32 36 38 41 41 41 44 44 43 45 44 45 46 46 46 46 46 44 47 51 54 57 60 63 66 66 65 60 62 63 66 68 70 74 78 76 63 60 62 61 55 50 48
37 39 38 43 44 44 45 45 43 44 45 45 46 46 46 45 45 47 50 53 56 60 63 66 67 65 63 60 59 62 63 66 69 72 74 67 60 57 61 63 59 54 51 48
43 44 46 46 45 45 45 45 46 45 46 46 46 46 45 46 48 51 54 58 62 65 67 66 64 62 61 61 61 63 64 68 70 64 60 60 60 63 65 66 60 53 49 47
43 45 49 48 47 46 45 46 47 47 47 47 46 46 47 49 52 56 60 63 65 65 63 60 60 62 64 66 67 66 66 64 59 59 61 62 64 65 68 69 60 51 48 44
44 45 48 48 48 46 48 49 48 48 47 47 46 47 51 55 58 62 64 64 62 59 59 61 64 65 65 65 63 61 59 59 60 61 66 66 66 68 68 64 58 52 47 43
45 46 45 46 47 48 49 49 48 47 45 46 50 54 57 61 63 64 62 58 57 60 63 64 65 66 64 61 59 60 62 62 64 68 65 66 69 69 66 59 54 49 45 42
47 47 48 47 48 48 47 47 46 47 50 53 56 60 63 63 61 57 56 58 60 63 65 65 64 61 59 58 63 63 65 67 66 66 70 72 72 68 62 56 49 45 42 40
48 49 50 49 48 48 47 47 50 52 55 58 61 63 61 58 56 55 58 61 63 66 67 64 61 58 59 61 64 66 66 68 71 74 77 75 70 64 59 54 49 45 41 38
49 50 48 48 47 47 48 51 54 57 59 62 62 59 56 55 56 60 62 64 66 66 62 60 59 60 61 63 65 68 69 73 78 80 77 72 66 62 59 55 50 46 42 38
47 47 47 46 47 50 52 55 57 59 62 61 57 55 55 58 61 64 65 67 66 63 61 60 61 62 64 65 68 72 76 80 79 74 70 68 66 57 54 52 49 45 42 39
45 44 46 49 51 54 55 57 60 59 56 53 54 57 60 62 65 66 65 63 62 62 60 61 63 65 67 70 75 79 81 77 71 65 61 58 58 56 52 48 45 43 40 38
46 49 50 54 56 57 59 58 54 52 53 55 58 61 63 66 66 65 63 63 62 62 62 64 65 69 73 77 81 80 72 65 59 55 53 52 51 50 47 44 42 40 40 39
52 54 55 57 58 57 53 52 54 57 59 61 62 65 66 66 63 62 62 63 63 64 66 68 71 75 79 80 75 67 61 57 53 51 49 47 46 46 46 43 40 39 38 38
57 57 56 54 53 53 54 57 59 61 64 66 66 65 63 61 62 63 63 62 63 66 69 73 76 79 75 69 63 58 56 54 52 51 49 48 47 45 44 42 40 39 38 38
54 53 53 53 55 58 60 62 64 65 65 63 61 61 60 59 58 59 61 65 69 71 74 77 76 70 66 60 56 55 55 55 54 53 52 50 48 47 46 44 42 40 39 38
53 54 57 59 61 62 64 65 65 63 59 57 58 56 55 58 63 67 69 69 71 75 76 71 67 62 57 54 55 55 56 56 55 54 52 50 48 48 47 46 45 43 41 40
58 60 61 62 64 65 63 60 57 54 54 54 55 59 63 66 67 67 70 74 75 72 67 64 59 55 52 53 55 57 59 59 57 54 51 49 47 46 45 45 44 44 42 40

GFSNGP_500_spd_027.txt.gz
Wind_Speed
24 21 23 23 16 15 16 18 17 11 15 13 19 25 30 33 34 34 37 39 46 46 48 46 48 47 51 51 52 52 53 51 52 51 53 57 59 57 61 63 65 69 76 79
25 24 24 23 16 20 19 16 17 15 18 19 25 29 31 34 36 38 43 45 46 48 50 49 51 47 49 51 52 50 49 50 51 55 57 58 57 61 64 65 67 73 81 89
21 22 22 19 15 19 17 18 20 20 23 26 28 31 32 35 38 39 42 44 44 47 50 52 52 44 47 49 48 49 50 53 55 56 55 58 61 64 68 72 71 77 83 86
22 23 23 18 16 16 17 20 22 25 25 26 29 32 35 38 39 41 44 46 48 49 49 49 48 46 45 46 50 53 54 54 54 55 58 62 65 69 70 79 85 82 80 81
24 24 20 19 17 16 19 23 23 23 26 29 31 34 37 39 41 44 47 49 49 48 45 43 43 44 46 49 52 53 53 55 57 60 64 63 74 75 77 80 86 84 86 82
22 21 21 21 20 19 23 25 21 23 25 28 31 35 37 41 44 46 46 46 45 43 43 43 45 47 47 49 49 52 55 58 62 67 67 67 71 72 73 80 79 75 76 80
17 18 18 18 17 19 19 20 21 25 28 30 34 37 41 43 44 45 43 44 47 46 47 47 46 48 47 50 54 56 59 63 59 66 72 71 72 70 72 69 74 77 80 64
12 13 15 15 17 18 21 23 25 29 32 35 38 39 41 44 44 42 40 42 46 47 47 47 47 47 49 52 55 58 61 61 62 61 66 68 69 70 71 72 76 70 61 59
15 16 17 18 19 20 23 26 31 34 36 39 40 42 44 42 42 44 44 46 46 46 46 45 47 50 53 56 60 63 66 66 65 66 64 67 70 72 73 70 60 57 56 58
19 21 21 24 25 27 29 31 35 38 41 42 42 42 43 45 46 47 48 48 47 46 46 48 51 55 59 63 65 65 64 61 62 64 67 69 71 70 64 56 56 60 61 61
24 27 28 32 34 36 39 41 42 44 44 44 42 43 45 47 49 49 49 49 48 49 50 53 58 62 64 65 63 60 60 63 66 69 70 70 68 60 59 58 63 62 61 63
32 32 33 36 39 41 43 46 47 47 46 45 45 46 49 50 50 50 50 49 49 52 56 61 65 65 64 60 60 62 65 68 68 70 69 64 60 60 60 63 65 62 63 65
37 38 40 41 43 45 47 48 47 47 46 46 47 49 50 52 51 50 49 50 54 57 62 65 65 64 60 60 64 67 68 68 70 68 65 62 62 61 61 62 62 66 68 65
42 43 44 45 46 49 50 48 48 47 47 49 51 52 52 51 49 49 52 56 59 63 65 63 60 60 62 65 67 68 69 69 68 64 62 62 64 65 64 63 65 66 68 65
45 46 48 50 51 50 48 48 47 48 50 52 52 51 50 49 51 54 57 60 64 66 63 60 60 63 66 69 70 72 72 71 67 64 63 64 63 65 67 69 72 71 66 59
46 47 50 52 51 52 50 49 50 51 52 53 52 50 51 53 56 58 62 65 66 62 59 60 63 67 70 72 73 72 70 68 65 65 64 65 67 69 73 76 75 70 63 56
47 48 49 50 51 49 50 50 52 53 53 52 51 52 55 58 61 64 66 65 62 60 61 64 68 71 72 73 73 72 68 65 64 65 67 69 73 77 78 76 71 66 60 55
48 49 50 50 50 51 52 53 53 52 51 51 53 56 59 62 64 66 63 61 61 63 67 70 72 73 74 75 72 68 65 64 66 68 70 74 78 77 72 67 63 59 49 47
48 49 49 51 51 53 53 53 51 50 52 55 58 60 62 65 64 60 60 61 64 67 71 72 72 72 72 70 68 66 66 66 69 73 77 78 73 65 59 56 57 54 49 45
48 50 51 52 53 53 48 47 51 54 56 60 62 64 64 61 59 60 63 66 69 72 74 74 73 71 70 66 65 66 68 72 76 77 74 66 61 56 52 51 52 49 46 42
50 51 52 50 47 46 49 52 54 57 61 63 63 61 59 60 62 65 67 70 72 73 72 69 66 62 61 64 68 71 73 76 74 68 63 57 54 52 50 49 48 47 45 40
50 48 46 46 47 49 53 56 60 62 62 60 58 59 61 64 66 69 71 71 70 67 64 60 63 67 68 69 71 76 74 69 66 60 55 53 52 52 50 49 48 47 44 41
43 45 47 50 56 57 60 62 60 58 57 58 60 63 65 67 69 70 67 64 61 59 63 65 66 68 72 75 75 71 67 63 59 55 53 53 53 53 52 50 48 47 46 44
47 51 56 59 59 61 60 57 57 58 60 63 65 67 68 68 66 63 61 59 59 64 67 70 71 74 77 73 69 66 62 58 55 54 55 55 56 57 55 51 49 47 46 45
56 59 60 59 57 56 57 59 60 63 65 66 68 69 66 60 58 58 59 61 65 69 73 75 76 75 70 68 65 62 58 56 55 56 58 58 60 60 55 50 48 46 45 44
56 55 56 56 57 59 61 64 65 67 66 64 62 59 55 56 59 60 64 68 72 75 76 76 73 68 67 65 61 58 56 55 56 58 59 61 63 57 50 44 41 40 41 41
54 56 58 60 62 65 65 65 65 64 59 54 53 56 58 60 62 66 70 73 74 74 73 70 67 66 62 59 55 54 54 55 55 57 61 62 56 49 43 38 34 32 32 33

GFSNGP_500_spd_033.txt.gz
Wind_Speed
19 20 21 23 23 24 23 23 25 24 25 23 28 29 27 24 20 21 20 22 24 25 25 28 32 34 35 36 37 38 45 49 46 50 52 52 52 52 53 53 56 60 65 65
25 24 25 26 27 29 26 26 30 31 29 22 25 26 24 23 25 24 26 27 28 28 31 33 35 39 41 44 46 47 48 51 52 50 50 51 53 54 54 56 62 67 66 75
24 27 30 31 28 30 33 33 31 34 29 29 27 25 24 25 26 28 29 29 30 32 36 38 42 45 47 47 47 48 51 53 52 52 54 55 55 55 59 61 66 71 75 75
30 32 35 29 29 29 30 30 30 31 25 24 24 24 24 26 27 29 30 32 34 36 39 42 46 47 46 46 49 51 52 52 51 54 54 52 55 58 63 61 69 69 71 72
33 32 32 27 25 26 27 28 26 26 25 25 23 24 26 27 30 30 31 34 37 40 43 46 47 46 46 48 50 52 53 51 51 51 51 50 57 54 73 70 74 72 68 68
33 34 32 21 26 25 27 29 24 23 23 25 26 27 27 28 29 31 34 36 40 44 46 47 46 46 47 49 51 52 52 51 50 51 50 50 63 66 67 68 71 67 67 70
33 33 28 22 25 28 29 19 22 24 26 26 26 26 26 29 32 34 37 41 45 46 47 47 47 48 50 51 53 54 53 52 52 53 56 61 65 66 66 65 66 67 69 74
31 29 26 21 24 22 19 20 21 23 23 25 25 26 29 32 34 37 40 42 43 45 46 46 47 49 51 53 55 54 52 52 53 57 61 65 66 65 64 65 67 71 75 76
28 24 21 18 16 14 14 17 20 21 22 24 26 29 32 35 37 39 42 44 46 47 47 48 50 52 54 55 54 53 52 55 59 63 66 66 64 64 66 70 74 76 77 75
27 23 21 18 17 17 18 20 22 24 26 28 31 33 36 38 41 44 46 47 48 49 49 51 53 55 55 55 54 54 57 60 64 66 67 66 66 68 71 75 76 77 77 76
29 25 23 23 23 23 23 25 27 30 32 34 36 39 41 44 45 47 48 49 50 51 52 53 55 56 55 55 56 58 62 65 67 68 67 67 69 73 75 77 79 80 78 75
31 30 30 29 29 29 31 32 34 36 38 40 42 45 47 49 50 50 51 52 52 53 55 56 57 57 56 57 60 63 67 69 69 68 68 70 73 75 78 80 80 79 74 69
36 35 35 36 36 37 38 38 39 41 43 46 48 50 50 51 52 53 54 54 54 56 57 58 58 57 58 62 65 68 69 68 67 68 71 74 76 79 81 79 74 68 65 66
40 41 40 39 39 41 42 44 45 47 49 50 51 52 53 53 54 54 55 55 56 58 59 58 57 59 63 67 69 68 67 67 68 71 74 77 80 83 83 79 74 66 64 67
43 43 43 43 44 46 48 49 50 51 52 53 53 54 54 54 55 56 56 57 59 58 56 57 61 64 68 70 68 67 68 70 73 76 79 82 83 79 74 71 69 67 68 71
45 46 47 47 48 49 50 51 52 53 53 53 54 54 54 55 56 57 58 59 57 55 58 61 65 70 70 68 68 69 71 74 78 80 80 79 75 72 71 72 73 73 72 68
46 47 47 48 49 50 51 51 52 52 53 54 54 55 56 57 58 60 59 55 55 59 62 66 69 69 69 69 70 73 76 78 79 79 78 75 73 74 75 75 75 70 64 61
46 47 48 48 50 50 50 51 53 54 54 54 54 56 58 59 60 56 54 56 60 63 67 71 71 70 70 72 75 77 78 78 78 75 72 72 73 76 76 72 66 63 62 58
42 44 45 47 48 51 53 54 54 54 54 55 57 59 60 60 57 56 58 61 65 71 71 71 71 72 74 76 77 77 77 75 71 70 72 75 77 73 70 68 66 62 57 53
43 45 47 48 50 52 52 51 52 53 55 58 61 61 59 58 58 60 63 67 72 72 69 70 71 73 75 75 74 72 70 69 71 74 78 77 75 72 68 64 60 56 53 51
39 48 49 47 48 49 49 51 54 58 60 61 60 59 59 61 62 65 68 71 69 68 69 72 74 73 72 71 68 67 69 73 77 77 78 78 71 65 61 58 56 54 53 53
46 47 44 43 45 48 54 58 60 60 59 59 60 62 63 65 68 69 69 68 68 70 72 72 71 69 67 65 66 70 74 77 76 80 76 70 62 57 55 55 55 55 53 52
39 39 41 46 52 58 59 58 57 59 61 62 64 67 69 69 68 67 67 69 71 71 69 68 68 65 63 67 71 75 76 75 79 74 71 62 55 54 54 54 53 51 51 52
45 48 52 56 58 58 58 59 60 62 64 66 69 70 68 67 67 69 70 70 69 67 66 67 63 63 68 71 76 75 75 78 73 70 64 56 54 54 53 52 49 51 48 45
53 55 57 58 59 59 60 61 62 64 66 67 66 64 65 68 68 68 68 67 65 64 64 63 64 68 71 75 74 74 78 72 69 66 58 53 52 52 52 49 49 46 42 42
55 57 58 59 60 61 63 64 64 63 63 63 64 66 66 66 66 66 66 64 63 61 63 66 69 71 75 73 73 77 75 68 65 61 55 52 51 49 48 47 45 40 40 41
56 58 60 61 62 61 60 61 62 64 65 66 67 67 68 68 66 63 63 61 62 65 68 70 71 74 73 72 76 75 69 64 62 58 53 50 48 47 45 44 40 37 39 39

GFSNGP_500_spd_036.txt.gz
Wind_Speed
24 24 27 30 29 28 27 27 26 21 24 20 24 28 30 30 23 19 19 20 22 25 28 30 30 29 30 33 35 38 38 41 42 45 49 53 56 57 55 56 58 58 57 61
27 28 26 24 23 27 28 26 26 26 27 25 26 27 23 23 22 21 23 25 27 29 30 30 28 29 33 36 39 41 43 43 45 49 52 54 56 53 58 59 58 58 56 60
23 25 25 23 21 25 29 32 32 31 27 29 27 25 28 27 26 25 25 28 30 31 31 29 31 34 37 40 43 46 47 47 49 51 53 54 54 55 59 57 56 59 65 66
27 26 27 19 22 26 30 31 33 32 30 29 26 23 24 24 26 28 29 29 29 29 29 31 34 38 41 44 46 48 48 49 50 52 55 56 57 57 56 56 53 56 71 73
31 26 26 21 22 25 30 29 30 30 28 27 24 23 23 25 27 28 28 29 29 31 32 35 38 42 44 46 47 48 49 50 52 54 56 57 56 55 55 58 61 65 70 73
29 28 27 24 27 29 33 31 25 28 26 24 23 24 25 26 28 29 28 30 31 33 35 38 41 43 44 46 47 48 50 52 54 56 57 56 55 55 59 63 67 70 71 72
29 30 30 27 29 29 32 23 27 26 26 26 26 26 27 27 26 27 29 30 33 36 39 41 42 43 45 46 48 50 52 54 56 56 56 55 56 60 63 67 69 70 69 70
30 31 27 28 29 28 26 25 26 25 25 27 26 24 23 24 25 28 30 33 36 38 41 42 44 46 48 50 51 53 54 55 55 55 55 57 60 64 67 69 69 69 69 70
36 30 28 26 24 23 22 20 20 20 22 21 20 21 24 26 29 32 34 37 39 42 44 46 47 49 50 51 52 54 55 56 55 55 57 60 64 68 70 70 70 69 71 74
33 30 27 25 23 22 22 20 18 18 19 21 23 26 29 31 34 36 39 42 44 46 47 48 50 51 53 54 55 56 57 57 57 58 62 66 69 70 70 70 72 74 76 79
35 32 27 24 25 25 24 24 23 23 24 26 28 31 34 36 38 41 44 46 48 49 50 52 53 55 56 56 57 58 57 57 59 63 67 70 71 71 72 73 77 79 81 84
33 28 32 28 28 28 28 29 30 31 31 32 34 37 39 42 45 47 49 51 52 53 54 55 56 56 57 59 59 57 57 60 64 68 72 72 72 72 74 77 79 81 82 82
37 36 35 33 32 32 34 34 36 37 38 40 42 44 46 49 51 52 53 54 55 55 56 57 58 59 60 61 58 57 61 65 70 73 73 73 73 74 76 78 81 80 79 75
40 41 39 38 38 39 40 40 42 44 45 46 48 49 50 51 52 53 54 55 56 57 58 59 60 62 62 59 59 62 66 71 73 74 74 76 77 80 83 85 85 80 75 74
35 41 43 42 46 46 46 46 47 49 50 51 51 51 51 52 53 54 56 57 57 58 59 62 64 63 61 61 64 68 72 74 74 74 76 78 81 83 84 83 80 79 76 75
42 39 40 43 46 45 46 47 50 52 52 51 51 51 51 52 55 56 57 57 59 61 63 65 64 63 64 66 69 73 74 74 75 76 79 81 83 82 80 79 79 80 79 76
41 43 48 50 49 48 48 51 52 53 52 52 51 52 53 55 55 56 58 60 63 66 67 65 64 66 69 71 75 73 73 75 78 80 81 81 79 77 78 80 79 77 75 71
48 49 46 43 43 46 49 51 51 51 52 52 54 56 56 55 56 58 61 64 66 66 65 66 68 70 73 76 74 73 75 77 80 80 79 76 75 78 79 77 77 72 69 60
41 41 42 43 43 44 45 48 48 39 54 55 56 55 54 56 59 63 66 66 65 67 68 70 72 75 77 72 73 74 77 78 78 75 72 74 77 77 76 75 71 68 61 52
38 41 44 44 45 44 46 46 46 55 58 57 54 53 57 61 66 66 65 66 67 70 73 74 76 75 72 72 74 75 76 75 71 70 72 76 74 74 73 70 67 62 54 51
41 41 40 38 46 51 45 46 52 58 54 51 54 58 62 66 64 65 67 69 71 73 75 77 73 72 72 74 73 73 71 68 69 72 74 72 71 73 70 66 65 58 53 51
39 38 39 41 45 51 55 55 54 51 53 57 61 65 67 65 67 68 70 72 74 74 73 70 71 72 73 72 70 69 66 68 71 73 70 71 72 71 67 65 62 56 53 53
38 41 45 47 49 49 48 49 51 56 61 64 68 67 67 68 69 71 72 73 72 70 70 71 70 71 70 69 66 65 68 69 71 69 70 73 73 69 65 63 59 55 52 51
44 45 47 47 48 49 51 55 59 64 67 67 67 68 69 70 71 72 70 69 69 70 71 71 71 70 67 64 66 67 69 70 68 69 73 75 73 66 63 61 57 53 51 48
48 49 50 50 52 57 62 65 66 66 66 66 67 69 70 69 69 69 69 71 70 70 71 71 67 65 64 66 67 68 70 68 67 71 74 74 67 61 61 59 54 50 47 46
54 53 53 58 61 64 65 65 66 66 67 68 68 69 68 69 70 70 71 70 70 71 68 65 65 66 67 68 69 70 69 67 70 73 74 69 62 59 59 55 50 47 44 43
54 59 62 64 64 64 65 66 68 68 67 67 68 68 68 69 69 68 68 68 68 67 68 68 69 69 69 69 71 70 69 69 73 74 69 63 58 56 55 50 47 43 42 39

GFSNGP_500_spd_039.txt.gz
Wind_Speed
20 21 28 31 33 30 29 30 30 22 21 18 22 22 22 23 23 21 22 23 22 24 25 26 27 30 31 32 32 33 34 36 38 38 38 40 45 49 51 54 57 57 58 61
23 25 27 28 28 26 25 21 22 25 21 23 26 27 25 26 23 21 19 23 26 26 27 29 30 30 32 32 32 33 34 37 40 43 45 48 50 52 54 55 56 57 56 57
25 25 26 24 20 21 21 23 25 26 24 29 27 27 29 27 26 24 24 24 25 27 28 29 30 30 30 31 32 34 37 40 43 46 48 49 51 53 55 56 58 59 51 56
29 27 27 11 17 19 20 21 24 25 25 27 30 29 28 27 26 23 23 25 26 26 28 29 29 29 30 32 35 37 40 43 45 47 49 51 52 54 58 56 57 57 57 60
31 28 26 20 17 19 22 16 24 24 28 27 26 27 26 26 26 25 24 23 24 25 25 26 28 30 32 35 38 40 42 44 47 48 50 52 53 55 55 58 58 58 61 64
36 34 29 14 20 22 23 14 18 24 27 28 27 26 25 25 24 22 22 24 24 25 25 27 30 32 35 38 40 42 45 46 48 51 52 54 56 57 57 57 58 60 64 68
37 33 24 20 22 23 25 24 22 25 26 26 25 26 26 24 22 23 24 23 23 25 27 30 33 35 38 41 43 45 47 49 50 52 54 56 57 57 57 57 60 63 68 72
33 34 34 22 24 26 26 24 22 22 23 22 21 22 23 22 22 22 22 23 26 28 31 34 37 41 43 46 47 48 50 52 54 56 57 58 58 56 56 58 62 66 69 72
32 30 28 24 24 25 26 24 22 19 19 18 16 18 18 19 21 22 25 28 30 33 36 40 43 46 48 49 50 52 54 56 57 58 59 59 56 57 60 63 67 70 73 74
32 32 30 27 26 27 26 25 23 21 18 18 17 18 20 23 26 28 30 33 36 39 42 45 48 50 51 51 53 56 57 59 60 61 62 60 59 60 64 69 72 75 76 79
34 29 28 30 30 32 31 27 24 24 23 23 24 25 27 29 31 33 36 39 42 45 47 49 51 52 53 55 58 60 60 61 63 64 62 60 62 66 70 75 78 79 81 83
32 25 28 29 32 34 30 30 29 28 28 29 30 31 33 35 37 40 42 45 48 50 51 53 54 54 56 58 59 60 61 64 65 63 62 64 67 72 75 77 78 79 81 84
39 37 32 31 35 34 34 34 33 33 33 35 36 39 40 42 44 46 49 51 52 53 54 54 55 56 58 58 59 62 65 65 64 64 66 70 74 77 80 78 77 79 82 85
42 38 34 34 37 40 39 38 37 38 40 42 44 46 47 49 50 50 51 52 53 54 55 56 57 58 59 60 63 65 65 65 65 67 71 75 80 82 83 82 83 84 85 84
41 37 35 32 30 31 40 44 45 43 41 44 47 49 51 52 51 50 51 52 53 54 56 57 57 59 62 66 67 66 66 68 71 74 77 81 84 83 83 84 84 84 82 81
44 40 40 40 39 42 42 42 40 42 45 47 51 52 52 53 51 48 49 52 54 56 57 58 60 64 69 69 67 68 70 73 76 79 82 82 82 81 81 82 80 79 81 80
51 45 42 42 45 44 44 43 46 51 51 48 48 49 50 51 49 46 51 55 57 59 58 60 64 70 71 70 71 72 74 77 80 82 82 81 79 79 79 76 77 78 77 75
49 49 48 52 48 48 45 48 55 49 42 44 46 50 48 56 53 52 58 59 58 57 61 65 71 72 72 73 74 75 77 79 80 78 77 77 78 75 73 75 76 73 71 71
51 49 46 48 58 49 47 55 47 42 43 46 51 47 61 48 48 55 59 56 58 63 68 71 74 74 74 75 76 78 79 77 75 75 76 75 72 71 74 74 71 69 70 69
48 48 43 40 40 42 44 41 43 44 45 51 50 53 54 60 62 57 57 59 65 70 74 76 77 75 75 77 77 75 74 73 74 75 73 68 69 72 73 69 67 68 71 69
44 34 45 34 33 37 41 43 42 48 50 45 52 56 56 56 58 59 61 67 72 75 78 77 76 76 77 76 74 72 73 74 74 71 67 69 71 71 69 66 66 69 71 66
36 36 35 38 41 42 40 42 43 48 51 55 59 60 59 60 61 63 67 72 76 79 78 77 77 76 73 72 72 73 73 73 70 67 69 70 70 69 67 65 68 70 70 65
32 34 37 38 39 39 43 47 51 54 55 54 57 60 62 64 66 70 75 80 79 78 78 77 74 72 71 72 72 72 71 69 69 70 71 70 69 69 65 66 70 70 67 63
32 34 38 43 47 49 50 51 53 55 57 60 62 63 64 69 74 77 77 77 77 77 75 73 72 72 73 72 71 71 70 71 72 71 71 71 71 70 66 68 70 67 64 60
40 43 46 49 50 52 55 56 58 61 63 63 64 68 72 75 75 75 76 76 75 74 74 75 74 72 71 72 73 74 74 74 73 72 72 73 72 68 68 69 67 63 58 55
45 48 50 52 55 57 58 60 62 62 63 68 71 72 73 73 73 74 74 74 75 75 75 73 73 73 73 74 75 76 75 74 74 73 73 72 69 68 68 65 62 57 52 50
49 51 53 55 56 58 59 60 63 66 68 69 69 70 71 72 72 73 74 74 74 74 74 75 76 77 78 78 77 76 76 75 74 73 71 69 69 67 63 59 54 49 47 45

GFSNGP_500_spd_042.txt.gz
Wind_Speed
23 25 30 28 30 30 32 27 29 23 25 22 22 23 23 22 22 23 25 24 23 26 28 28 30 29 28 29 30 32 34 35 36 37 38 38 40 42 44 46 49 52 55 57
25 24 27 27 29 33 33 28 24 24 19 18 22 24 25 24 26 26 24 23 24 25 27 27 28 29 30 31 32 33 33 34 35 36 37 40 42 45 47 50 52 55 56 58
27 26 28 26 26 27 26 23 21 21 19 23 24 26 27 27 29 30 28 26 26 28 27 27 28 29 31 32 33 33 33 34 36 38 40 43 45 47 50 53 55 57 59 60
31 29 32 12 16 19 22 20 20 23 23 25 25 26 26 28 28 29 29 26 24 25 27 28 29 29 30 31 31 32 33 35 37 40 43 45 48 50 52 54 57 58 59 60
34 30 27 21 19 18 19 14 21 23 25 28 27 27 26 25 25 25 25 26 25 24 24 25 27 28 28 29 30 32 34 37 40 43 46 48 50 53 55 57 58 59 61 60
35 33 29 18 18 20 24 12 22 20 21 24 24 23 23 24 23 23 23 23 23 23 25 25 25 26 27 29 32 34 38 41 44 46 49 51 53 56 57 58 60 61 62 61
33 32 27 21 21 22 26 17 25 23 22 24 24 23 22 21 21 22 22 23 24 24 23 24 26 27 30 32 36 39 42 45 47 49 51 54 56 57 58 59 61 62 62 62
35 34 29 16 24 27 21 25 25 23 22 22 22 20 18 19 20 21 22 22 21 22 24 26 29 31 34 38 41 44 47 49 51 52 54 56 58 59 60 62 63 63 63 65
36 33 26 21 23 28 27 27 27 22 24 22 22 20 19 19 20 20 20 22 24 26 29 31 34 37 41 44 47 50 51 52 53 55 57 58 59 61 63 64 64 64 66 69
36 36 31 22 20 25 30 33 30 27 25 23 23 23 22 22 22 23 25 27 30 32 34 37 40 43 46 49 51 52 53 55 57 58 59 59 61 64 65 65 65 66 69 73
41 33 29 21 20 27 32 36 32 29 27 26 25 26 27 27 28 29 31 33 35 38 40 43 46 48 50 51 53 54 56 58 59 59 60 63 65 66 67 67 69 72 75 79
41 31 31 25 27 30 33 32 32 31 31 30 30 31 32 32 33 35 37 39 42 44 47 49 51 51 51 53 54 57 58 58 58 60 64 67 68 69 70 73 74 77 81 83
43 44 38 34 32 32 35 34 33 32 33 34 35 36 37 38 40 42 44 46 48 50 51 52 52 52 53 54 56 56 57 58 60 64 67 70 72 74 75 75 78 81 83 86
41 41 39 34 35 39 38 40 39 38 39 41 41 41 42 43 46 46 48 50 51 52 53 53 52 53 55 56 56 58 58 59 62 68 71 73 74 75 77 80 82 84 85 84
36 38 38 37 36 35 34 38 34 35 38 40 44 50 51 50 44 48 51 53 52 52 52 52 52 53 55 59 61 60 60 63 67 72 76 76 77 78 81 83 84 84 83 84
36 38 44 35 36 37 38 37 39 40 38 40 43 45 45 47 53 57 54 51 53 54 53 54 57 59 60 62 61 62 66 69 72 77 79 78 79 81 84 83 82 82 82 79
41 35 35 41 44 47 44 44 43 41 44 44 46 46 49 53 56 53 49 49 57 63 64 59 57 62 66 64 63 66 71 75 76 77 78 80 82 82 81 80 80 80 75 75
42 45 45 44 44 48 45 46 47 48 54 53 48 52 50 48 51 50 46 52 59 61 54 58 65 64 63 64 67 71 76 76 76 77 79 80 80 79 79 79 77 72 73 76
42 44 46 47 46 48 49 50 51 51 54 59 58 50 42 47 48 55 57 54 58 64 64 66 65 65 66 69 73 76 76 76 76 77 78 78 78 78 78 74 71 73 75 74
46 45 44 46 48 48 52 49 51 53 55 52 42 37 42 53 54 56 60 57 59 62 63 64 66 68 71 74 76 78 78 77 77 78 77 77 77 76 71 71 73 75 74 72
43 41 44 38 37 49 55 47 41 37 36 43 44 47 50 56 58 55 58 60 61 66 69 69 69 71 75 79 80 81 81 79 79 78 77 76 73 71 71 74 75 74 73 72
42 37 37 42 41 30 36 38 37 39 41 42 47 49 52 53 57 59 62 65 68 71 73 73 74 78 82 82 83 82 80 80 79 78 75 72 71 73 75 75 75 74 73 73
43 33 31 33 33 33 34 36 38 41 45 47 52 55 58 61 63 64 66 68 71 73 75 77 80 82 83 82 81 81 82 80 78 76 75 74 75 76 76 76 75 73 73 70
27 30 33 34 35 37 38 41 44 47 52 56 58 59 62 65 67 68 69 70 72 74 77 79 81 82 82 82 83 82 79 78 79 78 77 78 79 78 76 75 74 72 69 67
30 33 35 37 39 44 47 49 53 56 58 60 62 64 66 68 70 71 73 74 76 78 79 81 82 82 82 81 80 80 80 81 81 83 83 82 79 78 76 74 71 68 67 66
39 42 44 46 49 52 55 57 59 61 63 64 66 67 68 70 72 74 76 77 79 81 81 81 80 80 80 81 83 85 86 87 86 85 83 81 78 75 72 69 67 66 65 61
44 46 48 51 54 57 59 61 62 64 65 67 69 70 71 73 75 77 78 78 77 77 78 79 81 84 86 88 89 90 89 87 85 83 80 76 73 71 69 67 66 63 57 52

GFSNGP_500_spd_045.txt.gz
Wind_Speed
33 26 21 19 22 25 28 30 30 24 20 19 16 27 27 31 32 23 24 23 25 27 28 31 33 33 33 32 33 33 34 35 35 37 38 37 38 40 41 42 44 47 50 53
37 31 32 33 31 28 25 29 30 25 23 20 25 25 31 31 30 29 28 27 27 29 29 29 32 32 29 29 30 32 34 34 36 37 36 37 38 39 41 44 47 50 53 55
41 33 30 39 28 29 27 29 25 24 20 20 20 24 27 28 31 31 32 33 33 32 31 30 31 31 31 30 31 32 34 35 35 34 35 37 39 41 45 48 50 53 55 58
39 37 42 26 25 25 27 23 24 25 23 20 24 29 27 28 31 30 31 34 34 33 32 31 31 32 32 32 33 34 35 34 34 35 37 39 42 45 48 51 53 55 58 60
44 41 36 28 27 22 24 19 21 25 22 24 28 24 24 25 28 31 31 30 32 32 31 31 30 30 31 32 34 33 33 34 35 37 39 42 46 49 51 53 55 58 60 61
44 42 42 23 24 23 24 20 21 25 24 25 27 24 26 22 27 28 27 27 27 27 27 28 29 30 32 31 30 31 33 34 37 40 43 46 50 52 54 56 58 60 61 62
43 44 39 25 24 24 33 11 26 25 25 26 27 26 25 24 26 26 26 25 25 25 27 28 30 30 29 30 32 33 35 38 42 45 48 51 53 54 56 59 61 61 61 63
44 44 43 31 20 27 25 27 33 33 30 29 29 27 27 25 25 25 25 25 25 27 28 29 28 29 31 33 35 37 41 44 47 50 52 53 55 56 58 59 59 60 61 62
47 45 38 28 25 22 22 30 33 33 33 31 30 30 27 26 24 24 25 26 26 27 27 28 30 33 34 37 40 43 46 49 52 53 54 55 56 58 59 58 59 59 60 64
47 42 37 33 30 28 23 26 30 34 35 32 30 30 29 28 26 25 26 26 27 28 30 33 35 37 40 43 47 49 52 53 54 56 57 58 59 59 59 60 60 62 65 68
47 45 41 42 32 30 31 33 36 37 36 34 33 34 33 31 30 30 30 30 32 34 36 38 41 44 46 49 52 53 54 55 56 58 58 59 60 61 61 62 64 68 71 75
47 46 39 39 37 35 36 35 37 35 34 35 37 37 37 36 36 36 35 35 38 39 42 45 47 48 50 52 54 55 56 57 58 58 59 60 62 63 64 66 70 73 77 80
49 43 45 45 44 38 34 33 35 37 35 34 36 39 39 39 40 40 41 42 44 45 47 51 54 55 56 57 58 58 59 59 59 57 59 64 66 66 67 70 75 78 82 84
42 45 46 44 45 45 46 39 35 39 37 39 39 40 43 44 43 45 48 49 51 52 55 52 51 56 56 57 59 61 62 62 63 66 69 71 69 69 72 77 80 83 84 84
34 36 40 39 44 46 47 43 40 39 35 35 37 40 42 42 43 44 45 48 50 50 51 53 57 59 58 57 58 63 68 69 65 68 71 73 71 73 77 81 83 84 83 82
34 36 35 38 32 34 39 39 35 35 34 39 38 41 43 46 48 47 48 52 51 54 56 59 60 56 58 62 71 70 68 65 68 70 72 74 74 77 80 82 83 82 80 80
37 36 37 35 33 37 30 33 38 43 45 42 45 43 43 43 48 51 55 55 58 59 59 60 51 57 67 71 67 63 63 72 73 72 75 75 77 80 82 81 80 79 80 80
33 32 34 37 39 40 41 42 42 43 46 47 43 45 53 52 52 54 57 63 62 62 62 65 61 62 68 63 63 67 72 70 72 75 77 78 79 81 81 81 81 80 79 77
33 35 37 38 40 40 42 44 46 49 51 50 49 50 51 52 53 61 66 58 53 59 61 56 64 69 68 69 71 74 73 76 77 76 78 80 83 83 82 82 81 79 76 74
33 38 42 43 43 42 43 44 46 48 50 52 55 53 55 59 62 60 48 49 50 51 61 66 69 68 68 71 75 77 79 79 79 80 83 85 85 84 83 82 78 78 77 77
39 39 40 43 44 45 46 45 43 44 51 53 52 53 51 49 52 50 52 55 59 62 65 62 63 68 70 73 75 78 80 81 83 85 86 86 86 84 82 80 80 80 80 80
34 32 33 33 35 37 39 42 43 46 46 44 44 46 47 49 54 56 57 61 62 61 64 68 70 71 73 77 80 81 82 83 85 87 87 86 84 82 82 82 83 84 84 83
35 38 42 44 43 43 40 39 40 44 46 48 49 50 51 53 58 61 59 61 64 67 70 73 75 77 79 80 81 83 85 87 87 86 84 83 83 84 86 87 87 86 84 81
40 41 37 36 35 36 38 41 40 41 44 47 50 54 59 60 59 61 64 66 70 73 75 77 78 79 81 83 85 86 86 85 84 84 86 87 89 90 90 88 86 84 80 76
33 35 37 39 40 43 46 48 49 51 54 56 59 60 60 62 65 67 70 72 74 75 76 78 80 82 85 86 86 85 85 86 88 90 91 91 90 89 88 86 84 80 75 71
38 39 41 43 45 47 50 52 53 54 56 58 60 62 64 67 69 71 72 74 77 79 81 83 83 82 83 84 85 87 88 89 89 88 87 86 84 83 81 77 73 69 66 62
43 45 47 49 50 52 53 54 56 58 60 63 65 67 69 71 73 75 77 78 79 80 80 80 82 83 85 85 85 85 84 82 80 79 80 81 81 79 74 69 64 59 55 50

GFSNGP_500_spd_051.txt.gz
Wind_Speed
45 44 44 35 33 29 35 33 39 29 31 27 28 30 31 28 27 29 28 24 28 23 20 16 20 24 29 32 34 34 34 33 35 36 38 37 34 33 35 35 36 36 36 37
44 50 45 40 35 36 32 31 34 32 33 28 22 24 27 31 29 27 25 28 23 27 24 19 16 21 27 31 33 33 33 33 34 35 34 35 34 35 35 35 36 36 37 38
46 47 50 50 48 37 35 30 35 34 30 24 27 22 33 27 34 33 32 26 20 27 31 29 24 24 28 30 32 32 33 33 33 31 31 31 34 34 36 37 36 37 38 41
48 46 53 48 50 43 36 35 33 36 34 29 28 25 32 38 37 39 37 24 25 27 32 30 29 28 28 31 33 32 31 32 32 31 31 32 33 35 34 35 37 39 42 47
49 50 51 50 48 50 44 39 42 39 38 31 36 33 33 38 41 41 36 29 30 29 29 29 30 30 30 29 30 31 32 32 32 35 34 35 36 36 37 38 41 44 48 52
46 51 50 48 46 49 48 51 43 38 35 41 43 46 44 42 38 36 32 29 29 30 29 30 30 29 28 29 31 32 33 34 35 36 38 38 37 38 40 43 47 50 54 57
47 51 49 47 46 41 53 47 38 32 35 35 42 40 42 45 40 33 34 32 31 32 32 32 31 30 28 28 30 33 34 35 37 38 39 39 40 42 45 48 51 55 59 62
46 45 44 45 40 41 48 34 32 26 31 40 40 40 40 39 38 37 35 36 37 37 35 35 34 33 30 30 30 33 36 38 39 39 40 42 45 47 50 53 57 60 62 62
54 56 49 39 42 45 35 42 35 37 42 43 41 36 35 37 39 37 37 38 39 39 38 37 36 35 34 32 33 36 38 39 39 41 44 47 50 52 55 59 61 64 65 64
44 50 50 44 43 40 38 39 41 44 44 43 45 43 42 49 41 37 39 41 41 40 40 40 39 37 37 37 38 38 39 40 43 46 50 52 54 57 61 63 63 67 68 66
36 37 48 37 42 47 47 40 43 51 47 45 47 43 46 51 38 37 39 43 47 46 43 43 42 40 40 41 42 43 44 45 48 53 55 57 58 62 64 62 64 67 62 64
37 42 45 45 39 42 45 44 40 53 53 47 50 49 47 42 42 41 42 43 44 45 46 46 45 44 44 44 46 47 48 51 54 57 59 62 64 65 64 64 68 66 68 72
42 43 43 44 42 47 37 41 38 44 43 45 52 54 54 51 47 47 48 48 46 43 42 44 46 46 45 47 50 52 55 58 60 61 62 62 63 64 66 68 69 65 69 78
48 48 43 47 43 42 42 41 47 41 42 43 41 48 52 49 52 53 53 50 49 47 46 46 48 49 50 51 54 56 58 62 64 64 62 63 66 70 72 72 75 78 81 82
43 44 42 36 30 32 37 39 43 49 50 49 47 51 57 56 56 53 52 51 49 47 47 47 46 52 56 56 57 56 58 60 64 67 69 71 72 73 76 80 84 85 83 78
33 37 36 31 30 27 25 27 33 37 39 40 45 48 50 48 47 50 54 53 53 52 52 52 52 52 52 56 57 58 63 66 69 70 73 75 78 81 82 82 82 81 80 81
36 37 34 33 33 33 33 32 31 34 35 35 35 36 39 38 37 37 40 39 46 44 40 49 50 51 52 59 62 66 67 68 74 77 76 75 75 76 77 77 78 79 82 82
31 30 31 32 34 34 35 36 37 40 43 44 46 45 42 43 45 47 46 48 50 47 50 59 62 58 60 62 63 66 72 75 78 74 72 72 71 72 75 78 79 81 84 85
33 33 32 32 34 36 35 36 40 43 45 47 49 50 52 52 52 53 51 53 54 54 56 60 67 64 65 69 73 77 78 72 68 67 67 69 71 74 77 80 82 82 84 87
30 32 33 34 35 36 37 38 42 47 50 50 50 51 51 51 52 52 52 60 59 60 64 67 67 67 69 67 65 63 63 64 64 66 69 72 75 78 79 80 83 85 89 92
36 38 40 43 46 48 50 50 54 55 52 48 48 48 52 51 52 54 55 58 61 62 63 69 66 63 63 61 61 62 65 67 70 71 72 74 76 79 83 86 90 93 95 96
33 36 38 40 44 47 50 52 53 55 55 54 54 56 53 53 56 59 60 62 64 65 62 61 61 60 60 63 64 67 68 68 71 74 77 80 84 87 90 93 95 96 95 93
30 33 35 38 39 40 42 44 47 48 49 49 51 53 55 55 54 55 55 54 54 54 55 57 61 64 65 67 68 69 72 75 78 82 85 88 91 92 94 94 93 92 90 88
32 34 36 40 42 43 45 47 50 51 51 51 51 50 50 50 52 53 54 56 57 60 61 62 65 68 69 72 75 77 80 83 85 87 89 90 91 92 91 89 87 85 85 85
34 35 37 38 40 41 42 44 45 46 47 48 49 51 53 55 56 57 58 59 61 63 66 69 71 73 75 77 80 81 83 85 86 87 87 86 85 84 83 82 82 82 82 82
26 28 31 33 34 36 38 39 41 43 45 47 49 51 53 55 58 60 62 64 66 68 69 71 73 75 78 79 80 81 82 81 80 79 78 78 77 78 79 80 80 80 79 77
37 39 41 42 43 45 46 47 48 49 51 53 55 56 58 60 62 64 65 67 69 71 72 74 75 76 76 75 74 72 71 71 71 72 73 75 76 76 75 73 73 73 73 71

GFSNGP_500_spd_054.txt.gz
Wind_Speed
40 34 44 45 43 43 41 37 40 32 32 29 33 28 30 32 36 30 26 25 26 24 25 25 26 26 26 25 24 26 25 25 26 27 28 28 27 27 28 28 30 32 32 34
43 34 45 51 45 43 44 40 41 31 34 29 36 33 31 33 36 38 33 34 27 19 19 28 20 17 20 26 30 30 30 29 29 31 31 30 29 29 30 32 33 35 36 38
49 42 38 53 51 50 46 45 41 38 34 30 33 34 31 32 34 35 30 32 31 32 28 25 23 23 24 26 31 32 32 32 32 32 32 30 28 29 32 35 35 36 38 38
45 45 48 41 47 49 51 47 43 37 35 31 34 37 40 40 35 32 36 37 35 29 23 25 26 26 26 26 28 31 32 32 32 33 33 32 33 34 35 36 37 38 38 40
49 53 51 52 48 46 49 48 42 43 41 37 34 34 36 34 29 34 36 36 35 34 31 28 26 24 25 26 27 28 28 29 29 29 32 35 36 36 38 40 41 41 43 44
27 51 56 48 50 45 49 52 49 51 42 43 40 40 39 39 36 37 43 44 39 37 32 30 29 29 28 29 30 29 28 30 31 32 34 37 38 39 40 42 43 44 46 48
38 35 49 49 49 47 50 46 50 52 53 45 37 40 40 41 44 42 47 48 43 34 36 35 34 32 33 33 33 33 34 33 34 37 39 39 40 42 43 43 45 47 50 52
40 43 47 41 42 43 45 47 43 48 51 52 46 46 46 44 42 46 50 52 42 38 38 37 37 38 39 38 37 38 39 39 38 40 40 42 44 45 45 46 49 51 53 56
36 26 46 48 41 37 34 39 40 39 46 50 49 46 44 44 45 45 49 43 41 40 41 40 39 40 40 40 41 41 42 43 42 42 44 46 47 47 48 51 53 56 58 62
33 14 25 28 41 38 34 33 37 39 38 48 48 52 50 45 41 39 42 40 41 43 46 43 43 43 43 43 43 43 43 44 44 45 46 47 49 52 55 57 58 60 63 67
55 24 17 18 30 44 38 37 34 34 35 33 42 51 54 52 51 46 47 45 39 39 38 39 41 43 44 45 46 47 47 47 47 47 49 52 54 57 59 61 63 66 68 67
64 47 39 33 30 31 39 48 49 48 46 47 43 44 52 56 55 51 50 50 48 51 46 44 47 45 44 44 45 49 51 51 51 52 54 56 59 60 63 66 67 68 63 65
42 49 41 40 32 29 33 40 45 48 50 52 58 51 53 56 57 58 56 54 53 49 51 50 52 52 49 48 49 49 51 53 55 57 59 61 63 65 65 65 66 67 68 69
38 42 39 39 38 35 33 33 46 46 46 49 43 50 49 53 53 58 59 55 52 52 53 55 58 52 53 52 51 52 55 56 58 61 63 66 64 64 65 68 70 73 76 78
31 36 33 33 32 32 32 33 36 37 43 52 44 42 45 55 54 56 55 55 57 58 58 59 55 55 55 54 54 58 57 59 61 59 61 64 66 70 73 75 77 80 81 79
32 32 30 30 29 27 26 32 33 31 34 38 43 48 50 53 55 50 51 53 56 53 47 48 50 49 47 54 51 47 52 55 55 56 63 66 72 72 74 77 79 79 80 80
33 33 34 31 27 27 29 33 34 32 31 33 34 35 36 35 36 38 40 41 43 40 42 39 52 49 49 52 56 60 55 62 61 66 67 74 74 75 80 84 84 80 78 77
34 39 40 34 31 31 31 31 34 37 39 41 41 43 46 48 49 50 51 51 51 48 47 47 60 61 61 61 62 65 61 68 75 74 75 76 80 82 80 76 74 73 74 75
36 37 37 34 32 30 32 35 37 40 43 45 47 48 49 51 52 53 55 56 57 58 60 61 62 62 62 58 67 68 76 77 76 76 77 77 73 72 71 70 71 73 75 78
34 39 41 42 39 39 41 45 43 45 48 50 51 52 53 54 54 51 50 58 58 57 59 60 63 65 65 68 72 75 77 78 78 81 76 71 69 68 70 73 76 78 80 84
38 42 45 45 44 44 48 51 52 51 51 51 53 52 50 49 49 49 52 56 59 61 62 62 65 68 68 71 74 74 74 73 72 68 68 68 71 73 76 78 81 84 87 89
32 30 32 34 37 42 44 45 45 45 45 47 48 49 50 49 49 50 52 55 58 60 62 64 66 66 67 66 65 66 66 67 69 71 74 75 77 80 82 85 87 88 90 91
29 30 32 34 37 38 40 41 44 45 46 47 47 47 47 49 50 51 52 53 54 55 57 58 59 60 62 65 67 70 71 73 74 76 79 81 83 84 86 87 88 88 88 87
27 28 28 28 30 33 35 38 42 44 44 45 45 46 48 49 50 50 52 53 55 56 59 61 63 65 66 68 71 73 76 77 79 81 83 85 85 86 85 85 84 83 82 82
22 23 24 25 28 30 32 35 38 40 42 44 46 48 50 51 53 54 55 57 59 61 63 65 67 69 71 73 75 77 79 80 81 81 81 80 79 78 77 77 77 78 79 78
22 24 25 27 29 31 34 37 40 42 44 47 49 51 53 55 57 59 60 62 63 64 66 68 70 71 73 74 74 74 74 72 71 70 70 70 71 73 74 74 74 74 73 73
34 35 37 38 40 41 42 44 45 48 50 51 53 55 57 58 60 62 64 65 67 68 68 68 68 66 64 62 61 61 62 63 64 66 68 69 69 69 68 67 67 67 67 67

GFSNGP_500_spd_057.txt.gz
Wind_Speed
44 37 40 42 43 42 43 43 44 35 36 29 29 31 27 26 28 30 28 31 29 28 22 21 24 25 24 24 24 23 23 24 23 25 26 27 24 26 27 28 29 28 28 28
44 44 40 44 45 45 44 44 48 48 45 36 30 33 36 32 34 38 35 36 34 32 30 26 23 24 23 21 23 27 26 26 28 30 30 30 28 27 28 30 30 30 31 34
47 45 45 46 45 45 48 45 46 50 43 41 36 35 38 36 38 38 36 31 32 28 26 24 30 30 31 25 24 26 28 26 29 32 33 33 31 30 32 32 33 33 34 36
48 48 47 42 45 39 47 49 49 48 46 41 38 36 40 39 40 39 35 35 36 31 31 32 31 37 30 26 26 27 28 27 27 30 31 32 34 35 35 35 37 34 36 39
44 45 47 42 46 42 41 46 50 50 48 45 46 42 41 36 41 39 35 36 34 31 33 33 27 27 29 29 29 28 27 30 31 31 31 32 33 35 34 36 36 39 41 44
58 53 42 46 43 43 46 48 42 43 52 54 52 48 42 35 40 40 36 35 36 34 37 36 35 33 33 33 31 30 30 32 33 33 34 35 36 37 39 40 41 45 47 48
58 60 54 39 32 37 49 45 45 49 51 53 53 48 42 41 45 46 43 38 40 42 43 42 39 36 37 37 35 36 34 36 37 36 38 39 40 42 43 43 46 48 49 50
54 63 61 52 43 42 34 38 43 43 44 52 53 52 51 50 47 45 45 45 44 45 43 41 41 39 40 41 40 40 39 39 40 41 42 42 42 43 45 47 48 50 52 55
41 47 62 64 43 39 32 26 35 41 50 49 49 52 51 47 52 54 48 46 45 44 46 44 41 40 38 40 43 43 42 42 42 43 45 46 45 46 48 50 52 54 56 58
45 38 50 54 60 38 33 25 29 35 35 42 43 47 44 45 46 49 49 47 48 44 41 41 39 41 42 39 40 43 44 45 46 47 47 48 50 50 51 53 56 58 60 63
41 42 40 46 47 38 11 37 37 35 35 35 36 38 39 37 43 47 47 45 48 49 48 45 44 45 43 39 43 47 47 49 49 48 50 52 54 55 57 58 61 63 65 67
40 41 31 37 48 24 17 17 23 40 37 36 38 35 31 35 36 42 48 51 52 53 57 52 49 49 52 51 46 48 54 52 52 53 53 54 56 58 60 61 64 67 69 72
34 33 31 31 53 46 39 30 22 28 41 47 47 40 41 46 46 43 42 44 53 54 55 56 56 55 55 55 54 56 54 54 54 54 55 58 59 61 63 66 68 69 70 71
31 21 26 30 39 43 40 34 31 27 27 33 40 50 48 50 50 46 50 49 51 47 55 59 53 54 60 55 53 53 57 58 56 51 53 57 60 61 60 62 66 68 69 69
47 32 30 31 37 40 40 39 35 34 29 27 35 46 44 49 49 57 53 48 54 56 62 65 63 66 63 62 55 52 53 56 54 49 55 50 54 54 59 62 62 65 68 73
49 39 40 35 35 41 41 35 34 30 28 28 28 32 38 42 45 47 51 47 54 55 55 55 60 59 57 52 54 45 49 49 57 57 56 60 64 66 64 66 67 78 78 78
35 38 37 35 33 36 34 35 37 33 32 32 31 33 35 37 36 37 41 47 49 47 47 47 47 50 50 45 44 48 53 57 60 65 68 67 70 67 69 73 81 83 83 81
28 37 44 44 37 39 38 38 39 36 33 32 32 33 35 36 38 41 43 45 48 50 52 54 56 56 56 57 58 61 64 67 66 67 69 71 72 76 80 80 83 83 82 82
35 33 31 34 37 40 42 41 43 40 39 40 38 40 41 43 46 48 51 53 56 57 60 60 60 56 54 56 60 62 60 65 69 71 73 75 76 78 81 82 81 80 79 78
34 35 37 37 38 42 44 41 46 45 42 44 42 49 50 51 54 55 56 55 54 53 51 51 50 54 60 66 62 66 73 74 75 75 77 78 79 78 77 77 77 77 78 80
28 32 38 37 41 42 46 45 45 49 53 48 51 50 51 50 48 49 50 50 50 50 51 54 57 61 65 67 70 72 74 75 76 76 74 74 73 74 76 79 81 82 83 85
30 33 36 38 38 41 41 43 49 48 47 48 48 45 47 49 50 50 51 51 50 51 52 54 57 60 63 66 68 70 69 69 70 70 72 75 77 80 81 83 85 86 87 89
31 30 30 31 33 34 37 37 38 41 44 47 48 47 47 48 48 48 47 47 48 50 51 52 54 56 59 61 63 66 68 71 73 75 76 78 80 82 83 84 86 86 85 85
23 27 24 28 28 28 29 31 32 34 36 37 38 39 40 41 43 44 46 48 50 51 53 55 57 60 62 64 67 70 72 74 76 78 79 80 81 81 81 81 80 80 80 80
19 18 17 19 21 23 26 29 31 32 33 35 37 39 42 44 46 48 50 52 54 56 58 60 62 65 67 69 71 72 74 75 76 76 75 75 74 74 73 73 74 75 76 76
19 22 24 26 28 30 32 35 37 39 41 42 44 46 48 50 52 53 56 58 61 64 66 67 69 70 71 72 72 71 70 69 68 67 67 67 67 68 68 68 67 66 64 62
29 32 34 36 39 40 42 44 45 47 48 50 52 53 55 56 58 60 61 63 64 64 63 62 61 60 59 59 58 58 59 60 60 61 61 60 59 59 58 57 57 58 58 58

GFSNGP_500_spd_060.txt.gz
Wind_Speed
42 39 39 39 37 39 42 40 41 40 39 32 28 28 30 32 29 28 28 24 25 28 21 24 27 26 28 26 26 26 24 24 23 24 24 25 26 27 30 31 30 28 28 28
39 38 36 36 40 41 41 42 43 44 42 36 30 33 33 29 32 35 28 32 34 28 30 28 26 27 28 29 31 30 30 28 25 25 26 25 27 28 29 33 33 33 33 32
45 44 43 39 39 41 41 40 42 44 43 41 36 37 38 36 33 35 34 33 36 32 27 24 27 25 25 26 32 32 32 29 27 26 28 29 29 30 30 32 34 34 34 34
44 38 42 41 43 41 42 42 41 43 43 46 45 35 36 39 39 36 37 35 35 36 28 24 23 26 25 28 31 32 33 31 28 27 28 29 30 30 30 33 34 36 36 37
51 49 46 37 39 45 42 41 40 41 41 44 46 41 39 38 39 36 36 32 36 35 33 26 27 27 30 30 29 27 31 33 31 30 31 30 31 32 33 34 35 37 40 43
50 50 53 49 36 38 46 49 37 41 42 40 40 45 44 38 40 39 39 39 33 34 34 34 32 32 31 31 33 27 30 37 36 35 35 35 34 34 35 37 39 41 44 45
54 58 58 57 50 46 41 45 38 35 41 42 42 40 40 40 40 45 46 43 42 38 40 38 36 35 36 36 36 33 34 39 41 41 40 41 38 38 38 39 41 43 45 47
30 34 32 40 51 56 56 49 42 39 38 48 45 47 42 40 40 42 47 51 46 40 46 44 42 38 38 37 37 38 38 40 43 45 43 43 43 41 40 41 42 45 47 49
26 22 26 33 35 38 46 58 52 38 38 47 45 54 53 44 39 43 46 49 51 50 49 44 41 35 40 41 44 42 42 41 42 43 43 45 46 45 46 46 46 48 51 53
28 25 27 31 41 41 41 52 55 53 44 35 38 43 45 48 47 42 44 44 46 48 47 51 50 46 46 45 44 46 44 42 41 40 39 42 44 45 48 50 51 54 55 56
30 30 31 34 40 44 41 42 53 60 53 40 39 35 34 34 39 43 41 40 42 44 46 46 41 46 44 44 46 46 49 49 47 51 52 48 49 49 49 53 55 57 59 61
36 36 35 35 40 42 44 41 40 46 51 41 40 38 35 35 35 35 35 36 41 41 41 42 45 47 52 52 52 52 52 48 51 51 51 52 54 54 53 54 58 61 63 64
41 41 43 44 42 42 37 37 37 31 26 28 26 34 39 35 35 38 35 35 35 39 44 43 45 46 47 50 54 56 53 54 53 52 56 52 54 56 60 54 52 54 58 59
44 44 42 43 40 36 33 31 46 40 32 33 32 28 32 41 44 47 44 45 46 48 49 53 53 53 51 61 62 60 56 57 53 53 64 64 58 52 54 60 56 51 54 59
39 43 44 41 35 32 27 32 33 44 37 37 39 38 30 31 41 46 45 43 44 46 53 59 60 60 60 57 58 62 64 61 62 62 59 55 51 56 60 58 61 64 67 68
33 35 34 39 46 38 30 28 31 38 34 34 39 38 35 33 37 44 48 51 47 45 46 49 52 53 54 56 56 55 50 50 52 53 53 54 53 56 59 65 67 69 69 70
34 38 39 36 40 44 44 32 32 35 37 44 41 40 39 38 39 38 40 42 44 44 44 45 45 44 46 49 49 50 46 55 54 60 60 60 65 65 67 68 69 72 74 77
31 34 35 30 35 41 41 40 40 39 37 42 46 43 44 44 42 42 44 42 43 44 45 47 48 49 51 52 50 57 59 59 59 59 60 61 63 67 70 72 74 79 82 85
33 39 36 33 29 35 38 42 46 46 41 43 44 47 47 48 48 47 48 49 49 50 51 52 52 53 53 52 52 54 57 59 64 65 66 67 70 72 75 78 83 86 88 86
34 34 36 35 30 31 38 42 40 40 42 42 43 48 49 49 51 50 49 46 49 52 52 49 49 50 51 53 56 59 62 64 65 68 70 73 78 80 81 83 84 83 82 81
32 30 33 36 36 40 40 44 43 44 45 44 43 46 47 51 50 52 53 55 54 51 50 51 53 55 55 57 60 63 64 65 67 69 72 75 77 79 79 78 80 82 84 86
30 32 32 31 33 35 35 39 44 44 43 43 42 41 43 45 46 46 47 49 52 54 54 56 55 57 58 59 60 61 63 65 67 69 71 73 75 78 80 82 83 85 86 88
30 32 35 38 37 36 38 39 40 42 42 42 43 44 43 42 43 44 47 48 49 51 51 51 51 52 54 56 59 61 64 66 68 70 73 75 77 79 80 82 83 84 85 85
34 32 34 34 33 30 30 30 29 30 30 31 33 34 35 36 37 38 40 42 45 47 47 49 51 53 56 59 62 65 67 70 73 75 77 78 79 79 79 78 76 75 75 75
20 22 24 25 25 26 27 29 30 31 33 34 36 38 39 41 42 43 45 48 50 53 54 57 59 61 64 67 69 71 72 73 73 72 71 70 68 68 68 69 69 68 67 67
22 24 27 29 31 34 36 38 39 41 42 44 45 47 48 50 51 53 54 56 58 59 61 63 65 65 66 66 65 64 62 61 60 60 61 62 63 63 62 61 60 61 62 63
32 34 37 39 41 43 45 47 49 50 51 53 54 55 56 57 58 59 59 60 60 60 59 58 57 56 54 52 51 51 53 55 56 58 59 58 57 56 55 56 57 56 55 55